UAE440 OMDB-YPAD

Flight info

Callsign UAE440
Flight time N/A
Altitude 39000
Route ANVIX7F ANVIX L223 TARDI DCT GIDAN P570 KITAL L894 DADAR DCT 09S084E 13S087E 17S090E 22S094E 23S095E 28S100E 32S107E 33S110E 34S114E DCT NIPON DCT VIMUS DCT COBEL DCT LESON DCT TUTNO DCT
Aircraft A359/H-VGDW/C

Departure

Time 2026-04-26 10:05
Airport Dubai International Airport (OMDB)

Arrival

Time N/A
Airport Adelaide International Airport (YPAD)
Time Latitude Longitude Altitude Speed Heading
2026-04-26 08:59 25.24375 55.36928 28 ft 0 kts 31°
2026-04-26 09:40 25.24367 55.36923 28 ft 2 kts 32°
2026-04-26 09:40 25.24353 55.36913 27 ft 2 kts 34°
2026-04-26 09:40 25.24340 55.36902 28 ft 2 kts 37°
2026-04-26 09:41 25.24327 55.36891 26 ft 2 kts 42°
2026-04-26 09:41 25.24316 55.36877 25 ft 2 kts 54°
2026-04-26 09:41 25.24308 55.36861 26 ft 2 kts 84°
2026-04-26 09:41 25.24310 55.36844 26 ft 2 kts 117°
2026-04-26 09:42 25.24313 55.36839 26 ft 0 kts 120°
2026-04-26 09:54 25.24302 55.36859 28 ft 8 kts 120°
2026-04-26 09:54 25.24274 55.36910 28 ft 8 kts 122°
2026-04-26 09:55 25.24235 55.36978 28 ft 13 kts 122°
2026-04-26 09:55 25.24186 55.37066 28 ft 13 kts 122°
2026-04-26 09:55 25.24136 55.37154 28 ft 14 kts 122°
2026-04-26 09:55 25.24085 55.37245 28 ft 14 kts 122°
2026-04-26 09:56 25.24035 55.37336 28 ft 14 kts 122°
2026-04-26 09:56 25.23984 55.37428 28 ft 14 kts 116°
2026-04-26 09:56 25.23972 55.37531 28 ft 14 kts 77°
2026-04-26 09:56 25.24028 55.37610 28 ft 13 kts 36°
2026-04-26 09:57 25.24105 55.37663 28 ft 13 kts 31°
2026-04-26 09:57 25.24183 55.37715 28 ft 13 kts 31°
2026-04-26 09:57 25.24261 55.37768 28 ft 13 kts 31°
2026-04-26 09:57 25.24337 55.37821 28 ft 13 kts 34°
2026-04-26 09:58 25.24351 55.37831 28 ft 0 kts 34°
2026-04-26 09:59 25.24352 55.37832 28 ft 1 kts 34°
2026-04-26 09:59 25.24389 55.37860 28 ft 8 kts 34°
2026-04-26 10:00 25.24435 55.37894 28 ft 8 kts 34°
2026-04-26 10:00 25.24482 55.37930 28 ft 8 kts 34°
2026-04-26 10:00 25.24531 55.37967 28 ft 9 kts 34°
2026-04-26 10:00 25.24581 55.38006 28 ft 9 kts 34°
2026-04-26 10:01 25.24633 55.38042 28 ft 9 kts 31°
2026-04-26 10:01 25.24642 55.38048 28 ft 0 kts 31°
2026-04-26 10:02 25.24648 55.38052 28 ft 5 kts 31°
2026-04-26 10:03 25.24694 55.38084 28 ft 9 kts 31°
2026-04-26 10:03 25.24749 55.38102 28 ft 8 kts 353°
2026-04-26 10:03 25.24785 55.38067 28 ft 5 kts 303°
2026-04-26 10:03 25.24785 55.38066 28 ft 0 kts 303°
2026-04-26 10:04 25.24804 55.38032 28 ft 23 kts 301°
2026-04-26 10:04 25.24994 55.37693 28 ft 79 kts 301°
2026-04-26 10:04 25.25369 55.37017 28 ft 127 kts 301°
2026-04-26 10:05 25.25911 55.36035 32 ft 169 kts 302°
2026-04-26 10:05 25.26578 55.34837 295 ft 189 kts 303°
2026-04-26 10:05 25.27292 55.33552 678 ft 206 kts 303°
2026-04-26 10:05 25.28051 55.32121 1153 ft 221 kts 301°
2026-04-26 10:06 25.28828 55.30618 1562 ft 230 kts 298°
2026-04-26 10:06 25.29367 55.28975 2277 ft 227 kts 283°
2026-04-26 10:06 25.29445 55.27269 2856 ft 225 kts 263°
2026-04-26 10:06 25.28852 55.25642 3204 ft 235 kts 239°
2026-04-26 10:07 25.27892 55.24160 3631 ft 234 kts 237°
2026-04-26 10:07 25.26985 55.22658 3939 ft 242 kts 240°
2026-04-26 10:07 25.26114 55.20999 4003 ft 261 kts 243°
2026-04-26 10:07 25.25235 55.19162 4011 ft 281 kts 244°
2026-04-26 10:08 25.24002 55.17399 4237 ft 296 kts 219°
2026-04-26 10:08 25.22121 55.16496 4717 ft 304 kts 188°
2026-04-26 10:08 25.20021 55.16614 5166 ft 309 kts 167°
2026-04-26 10:08 25.18126 55.17738 5644 ft 312 kts 137°
2026-04-26 10:09 25.16896 55.19663 6124 ft 312 kts 117°
2026-04-26 10:09 25.15950 55.21841 6613 ft 315 kts 115°
2026-04-26 10:09 25.15008 55.24033 7071 ft 318 kts 116°
2026-04-26 10:09 25.14034 55.26222 7532 ft 320 kts 117°
2026-04-26 10:10 25.13024 55.28409 8003 ft 322 kts 118°
2026-04-26 10:10 25.11982 55.30623 8488 ft 324 kts 118°
2026-04-26 10:10 25.10939 55.32812 8980 ft 325 kts 118°
2026-04-26 10:10 25.09918 55.35047 9476 ft 327 kts 116°
2026-04-26 10:11 25.08985 55.37331 9974 ft 328 kts 115°
2026-04-26 10:11 25.08069 55.39626 10418 ft 329 kts 115°
2026-04-26 10:11 25.07130 55.41954 10894 ft 330 kts 115°
2026-04-26 10:11 25.06225 55.44273 11365 ft 330 kts 114°
2026-04-26 10:12 25.05345 55.46599 11842 ft 331 kts 114°
2026-04-26 10:12 25.04450 55.48961 12337 ft 331 kts 115°
2026-04-26 10:12 25.03570 55.51269 12823 ft 330 kts 115°
2026-04-26 10:12 25.02675 55.53601 13213 ft 334 kts 115°
2026-04-26 10:13 25.01673 55.55944 13597 ft 337 kts 121°
2026-04-26 10:13 25.00509 55.58183 13928 ft 340 kts 123°
2026-04-26 10:13 24.99282 55.60440 14249 ft 344 kts 123°
2026-04-26 10:13 24.98053 55.62698 14570 ft 347 kts 123°
2026-04-26 10:14 24.96806 55.64991 14900 ft 351 kts 123°
2026-04-26 10:14 24.95535 55.67336 15234 ft 355 kts 123°
2026-04-26 10:14 24.94252 55.69657 15560 ft 358 kts 125°
2026-04-26 10:14 24.92836 55.71907 15898 ft 360 kts 128°
2026-04-26 10:15 24.91361 55.74136 16239 ft 363 kts 128°
2026-04-26 10:15 24.89872 55.76370 16576 ft 366 kts 128°
2026-04-26 10:15 24.88370 55.78624 16923 ft 369 kts 128°
2026-04-26 10:15 24.86836 55.80932 17279 ft 372 kts 128°
2026-04-26 10:16 24.85317 55.83220 17629 ft 375 kts 128°
2026-04-26 10:16 24.83779 55.85536 17989 ft 377 kts 128°
2026-04-26 10:16 24.82200 55.87890 18334 ft 379 kts 129°
2026-04-26 10:16 24.80621 55.90212 18648 ft 381 kts 129°
2026-04-26 10:17 24.79033 55.92536 18960 ft 382 kts 130°
2026-04-26 10:17 24.77287 55.94768 19283 ft 382 kts 135°
2026-04-26 10:17 24.75437 55.96841 19600 ft 383 kts 138°
2026-04-26 10:17 24.73489 55.98871 19932 ft 384 kts 140°
2026-04-26 10:18 24.71523 56.00844 20263 ft 385 kts 141°
2026-04-26 10:18 24.69541 56.02811 20592 ft 386 kts 141°
2026-04-26 10:18 24.67535 56.04812 20929 ft 386 kts 141°
2026-04-26 10:18 24.65572 56.06792 21268 ft 387 kts 140°
2026-04-26 10:19 24.63585 56.08815 21614 ft 388 kts 140°
2026-04-26 10:19 24.61623 56.10824 21956 ft 388 kts 140°
2026-04-26 10:19 24.59657 56.12847 22302 ft 389 kts 140°
2026-04-26 10:19 24.57708 56.14956 22664 ft 391 kts 135°
2026-04-26 10:20 24.55957 56.17228 23016 ft 392 kts 132°
2026-04-26 10:20 24.54818 56.18795 23267 ft 394 kts 131°
2026-04-26 10:20 24.52608 56.21963 23699 ft 394 kts 130°
2026-04-26 10:20 24.50953 56.24393 24006 ft 394 kts 130°
2026-04-26 10:21 24.49330 56.26789 24300 ft 394 kts 130°
2026-04-26 10:21 24.47678 56.29229 24602 ft 394 kts 130°
2026-04-26 10:21 24.46047 56.31633 24908 ft 392 kts 130°
2026-04-26 10:21 24.44424 56.34010 25200 ft 390 kts 130°
2026-04-26 10:22 24.42802 56.36377 25526 ft 388 kts 130°
2026-04-26 10:22 24.41172 56.38750 25842 ft 386 kts 130°
2026-04-26 10:22 24.39562 56.41091 26149 ft 384 kts 130°
2026-04-26 10:22 24.37969 56.43406 26482 ft 382 kts 130°
2026-04-26 10:23 24.36382 56.45710 26803 ft 379 kts 130°
2026-04-26 10:23 24.34778 56.48040 27142 ft 376 kts 130°
2026-04-26 10:23 24.33214 56.50310 27477 ft 373 kts 130°
2026-04-26 10:23 24.31657 56.52570 27720 ft 373 kts 130°
2026-04-26 10:24 24.30092 56.54838 27884 ft 374 kts 130°
2026-04-26 10:24 24.28520 56.57117 28049 ft 376 kts 130°
2026-04-26 10:24 24.26951 56.59391 28211 ft 377 kts 130°
2026-04-26 10:24 24.25351 56.61707 28418 ft 378 kts 130°
2026-04-26 10:25 24.23773 56.63992 28583 ft 379 kts 130°
2026-04-26 10:25 24.22182 56.66293 28750 ft 380 kts 130°
2026-04-26 10:25 24.20591 56.68594 28914 ft 382 kts 130°
2026-04-26 10:25 24.18979 56.70925 29093 ft 383 kts 130°
2026-04-26 10:26 24.17383 56.73231 29255 ft 384 kts 130°
2026-04-26 10:26 24.15758 56.75579 29419 ft 385 kts 130°
2026-04-26 10:26 24.14151 56.77900 29582 ft 386 kts 130°
2026-04-26 10:26 24.12514 56.80262 29738 ft 387 kts 130°
2026-04-26 10:27 24.10890 56.82605 29897 ft 388 kts 130°
2026-04-26 10:27 24.09268 56.84944 30023 ft 389 kts 129°
2026-04-26 10:27 24.05967 56.89699 30089 ft 398 kts 129°
2026-04-26 10:28 24.02554 56.94608 30104 ft 408 kts 129°
2026-04-26 10:28 23.99068 56.99619 30116 ft 420 kts 129°
2026-04-26 10:29 23.95484 57.04768 30129 ft 432 kts 129°
2026-04-26 10:29 23.91809 57.10042 30135 ft 444 kts 129°
2026-04-26 10:30 23.88035 57.15452 30141 ft 456 kts 129°
2026-04-26 10:30 23.84137 57.21035 30195 ft 467 kts 129°
2026-04-26 10:31 23.80160 57.26724 30332 ft 475 kts 129°
2026-04-26 10:31 23.76110 57.32510 30473 ft 483 kts 129°
2026-04-26 10:32 23.72009 57.38363 30616 ft 491 kts 129°
2026-04-26 10:32 23.67822 57.44330 30763 ft 498 kts 128°
2026-04-26 10:33 23.63600 57.50341 30911 ft 506 kts 128°
2026-04-26 10:33 23.59291 57.56469 31057 ft 512 kts 128°
2026-04-26 10:34 23.54931 57.62662 31205 ft 518 kts 128°
2026-04-26 10:34 23.50506 57.68938 31354 ft 524 kts 128°
2026-04-26 10:35 23.46065 57.75229 31507 ft 528 kts 128°
2026-04-26 10:35 23.41576 57.81581 31646 ft 529 kts 128°
2026-04-26 10:36 23.37085 57.87929 31798 ft 528 kts 128°
2026-04-26 10:36 23.32621 57.94232 31949 ft 528 kts 128°
2026-04-26 10:37 23.28127 58.00564 32094 ft 528 kts 128°
2026-04-26 10:37 23.23628 58.06896 32236 ft 527 kts 128°
2026-04-26 10:38 23.19171 58.13163 32375 ft 527 kts 128°
2026-04-26 10:38 23.14679 58.19475 32528 ft 527 kts 128°
2026-04-26 10:39 23.10178 58.25788 32667 ft 528 kts 128°
2026-04-26 10:39 23.05688 58.32077 32825 ft 527 kts 128°
2026-04-26 10:40 23.00759 58.37869 32978 ft 526 kts 141°
2026-04-26 10:40 22.94712 58.42370 33185 ft 526 kts 149°
2026-04-26 10:41 22.91616 58.44439 33313 ft 526 kts 149°
2026-04-26 10:41 22.88456 58.46503 33439 ft 526 kts 150°
2026-04-26 10:41 22.85345 58.48523 33563 ft 526 kts 149°
2026-04-26 10:41 22.82180 58.50584 33702 ft 526 kts 149°
2026-04-26 10:42 22.79066 58.52623 33821 ft 526 kts 149°
2026-04-26 10:42 22.76968 58.54001 33895 ft 526 kts 149°
2026-04-26 10:42 22.72839 58.56723 34048 ft 526 kts 149°
2026-04-26 10:42 22.69688 58.58805 34162 ft 526 kts 149°
2026-04-26 10:43 22.66581 58.60859 34276 ft 526 kts 149°
2026-04-26 10:43 22.63436 58.62940 34379 ft 526 kts 149°
2026-04-26 10:43 22.60329 58.64992 34499 ft 526 kts 149°
2026-04-26 10:43 22.57235 58.67033 34614 ft 526 kts 149°
2026-04-26 10:44 22.54090 58.69106 34719 ft 525 kts 149°
2026-04-26 10:44 22.50994 58.71146 34842 ft 525 kts 149°
2026-04-26 10:44 22.47853 58.73215 34958 ft 525 kts 149°
2026-04-26 10:44 22.44737 58.75266 35076 ft 525 kts 149°
2026-04-26 10:45 22.41630 58.77310 35194 ft 525 kts 149°
2026-04-26 10:45 22.38506 58.79365 35308 ft 525 kts 149°
2026-04-26 10:45 22.35402 58.81404 35428 ft 525 kts 149°
2026-04-26 10:45 22.32266 58.83465 35548 ft 525 kts 149°
2026-04-26 10:46 22.29134 58.85521 35667 ft 525 kts 149°
2026-04-26 10:46 22.26036 58.87554 35786 ft 524 kts 149°
2026-04-26 10:46 22.22904 58.89609 35916 ft 524 kts 149°
2026-04-26 10:46 22.19791 58.91647 36020 ft 524 kts 149°
2026-04-26 10:47 22.16689 58.93679 36143 ft 524 kts 149°
2026-04-26 10:47 22.13553 58.95733 36261 ft 524 kts 149°
2026-04-26 10:47 22.10450 58.97765 36373 ft 524 kts 148°
2026-04-26 10:47 22.07364 58.99785 36501 ft 523 kts 149°
2026-04-26 10:48 22.04225 59.01839 36625 ft 523 kts 148°
2026-04-26 10:48 22.01133 59.03859 36745 ft 523 kts 148°
2026-04-26 10:48 21.95967 59.07233 36952 ft 522 kts 149°
2026-04-26 10:49 21.92878 59.09249 37074 ft 521 kts 148°
2026-04-26 10:49 21.89755 59.11286 37197 ft 520 kts 149°
2026-04-26 10:49 21.85662 59.13954 37367 ft 519 kts 149°
2026-04-26 10:49 21.83604 59.15295 37457 ft 518 kts 149°
2026-04-26 10:50 21.80527 59.17299 37580 ft 517 kts 149°
2026-04-26 10:50 21.77422 59.19320 37723 ft 516 kts 149°
2026-04-26 10:50 21.74381 59.21299 37836 ft 515 kts 149°
2026-04-26 10:50 21.71284 59.23313 37966 ft 514 kts 149°
2026-04-26 10:51 21.68243 59.25289 38101 ft 513 kts 149°
2026-04-26 10:51 21.62140 59.29253 38357 ft 510 kts 149°
2026-04-26 10:51 21.59128 59.31211 38488 ft 508 kts 149°
2026-04-26 10:52 21.56108 59.33174 38594 ft 507 kts 149°
2026-04-26 10:52 21.53105 59.35122 38706 ft 505 kts 149°
2026-04-26 10:52 21.50084 59.37079 38804 ft 504 kts 149°
2026-04-26 10:53 21.44108 59.40949 38824 ft 505 kts 149°
2026-04-26 10:53 21.38057 59.44865 38826 ft 507 kts 149°
2026-04-26 10:54 21.28998 59.50723 38833 ft 510 kts 149°
2026-04-26 10:54 21.22898 59.54666 38832 ft 512 kts 149°
2026-04-26 10:55 21.16773 59.58617 38833 ft 514 kts 149°
2026-04-26 10:55 21.10656 59.62554 38838 ft 516 kts 149°
2026-04-26 10:56 21.04483 59.66526 38841 ft 518 kts 149°
2026-04-26 10:56 20.98298 59.70500 38846 ft 518 kts 149°
2026-04-26 10:57 20.92148 59.74447 38846 ft 517 kts 149°
2026-04-26 10:57 20.85966 59.78413 38850 ft 517 kts 149°
2026-04-26 10:58 20.79792 59.82370 38850 ft 517 kts 149°
2026-04-26 10:58 20.73609 59.86328 38853 ft 518 kts 149°
2026-04-26 10:59 20.67439 59.90273 38855 ft 518 kts 149°
2026-04-26 10:59 20.61256 59.94223 38858 ft 518 kts 149°
2026-04-26 11:00 20.55059 59.98178 38857 ft 518 kts 149°
2026-04-26 11:00 20.48910 60.02099 38858 ft 518 kts 149°
2026-04-26 11:01 20.42710 60.06049 38859 ft 518 kts 149°
2026-04-26 11:01 20.36518 60.09990 38860 ft 518 kts 149°
2026-04-26 11:02 20.30351 60.13911 38865 ft 517 kts 149°
2026-04-26 11:02 20.24190 60.17825 38864 ft 517 kts 149°
2026-04-26 11:03 20.17981 60.21765 38865 ft 517 kts 149°
2026-04-26 11:03 20.11824 60.25669 38868 ft 517 kts 149°
2026-04-26 11:04 20.05709 60.29670 38865 ft 517 kts 143°
2026-04-26 11:04 20.00150 60.34540 38852 ft 516 kts 138°
2026-04-26 11:05 19.94816 60.39594 38869 ft 516 kts 137°
2026-04-26 11:05 19.89476 60.44726 38872 ft 516 kts 137°
2026-04-26 11:06 19.84133 60.49831 38867 ft 516 kts 137°
2026-04-26 11:06 19.78780 60.54917 38867 ft 516 kts 137°
2026-04-26 11:07 19.73453 60.59964 38868 ft 516 kts 137°
2026-04-26 11:07 19.68088 60.65043 38867 ft 516 kts 137°
2026-04-26 11:08 19.62730 60.70112 38869 ft 516 kts 137°
2026-04-26 11:08 19.57410 60.75141 38866 ft 516 kts 137°
2026-04-26 11:09 19.52053 60.80200 38867 ft 516 kts 137°
2026-04-26 11:09 19.46671 60.85278 38866 ft 516 kts 137°
2026-04-26 11:10 19.41349 60.90294 38866 ft 516 kts 137°
2026-04-26 11:10 19.35968 60.95362 38865 ft 516 kts 137°
2026-04-26 11:11 19.30625 61.00389 38866 ft 516 kts 137°
2026-04-26 11:11 19.25263 61.05430 38867 ft 516 kts 137°
2026-04-26 11:12 19.19880 61.10486 38868 ft 516 kts 137°
2026-04-26 11:12 19.14539 61.15497 38867 ft 516 kts 137°
2026-04-26 11:13 19.09157 61.20542 38867 ft 516 kts 137°
2026-04-26 11:13 19.03794 61.25566 38867 ft 516 kts 137°
2026-04-26 11:14 18.98407 61.30607 38867 ft 517 kts 137°
2026-04-26 11:14 18.93024 61.35640 38865 ft 516 kts 137°
2026-04-26 11:15 18.87656 61.40655 38866 ft 516 kts 137°
2026-04-26 11:15 18.82272 61.45679 38865 ft 516 kts 137°
2026-04-26 11:16 18.76887 61.50700 38867 ft 516 kts 137°
2026-04-26 11:16 18.71529 61.55692 38860 ft 516 kts 137°
2026-04-26 11:17 18.66134 61.60714 38861 ft 517 kts 137°
2026-04-26 11:17 18.60743 61.65728 38860 ft 516 kts 137°
2026-04-26 11:18 18.55352 61.70736 38863 ft 516 kts 137°
2026-04-26 11:18 18.49943 61.75758 38858 ft 516 kts 137°
2026-04-26 11:19 18.44562 61.80749 38860 ft 516 kts 137°
2026-04-26 11:19 18.39176 61.85740 38861 ft 516 kts 137°
2026-04-26 11:20 18.34683 61.89901 38859 ft 516 kts 137°
2026-04-26 11:20 18.28390 61.95723 38859 ft 516 kts 137°
2026-04-26 11:21 18.23028 62.00679 38857 ft 516 kts 137°
2026-04-26 11:21 18.17634 62.05661 38855 ft 516 kts 137°
2026-04-26 11:22 18.12230 62.10647 38853 ft 516 kts 137°
2026-04-26 11:22 18.06854 62.15604 38850 ft 516 kts 137°
2026-04-26 11:23 18.01426 62.20604 38853 ft 515 kts 137°
2026-04-26 11:23 17.96068 62.25536 38852 ft 515 kts 137°
2026-04-26 11:24 17.90667 62.30503 38851 ft 515 kts 137°
2026-04-26 11:24 17.85286 62.35447 38848 ft 515 kts 137°
2026-04-26 11:25 17.79883 62.40408 38852 ft 514 kts 137°
2026-04-26 11:25 17.74512 62.45335 38851 ft 514 kts 137°
2026-04-26 11:26 17.69140 62.50258 38851 ft 513 kts 137°
2026-04-26 11:26 17.63773 62.55174 38851 ft 513 kts 138°
2026-04-26 11:27 17.58393 62.60097 38852 ft 512 kts 138°
2026-04-26 11:27 17.53019 62.65010 38853 ft 512 kts 138°
2026-04-26 11:28 17.47675 62.69892 38849 ft 511 kts 138°
2026-04-26 11:28 17.42324 62.74777 38849 ft 511 kts 138°
2026-04-26 11:29 17.36956 62.79673 38845 ft 510 kts 138°
2026-04-26 11:29 17.31627 62.84529 38846 ft 510 kts 138°
2026-04-26 11:30 17.27155 62.88602 38840 ft 509 kts 138°
2026-04-26 11:30 17.20936 62.94261 38843 ft 508 kts 138°
2026-04-26 11:31 17.15591 62.99120 38843 ft 508 kts 138°
2026-04-26 11:31 17.10287 63.03939 38840 ft 508 kts 138°
2026-04-26 11:32 17.04939 63.08794 38838 ft 507 kts 138°
2026-04-26 11:32 16.99628 63.13606 38836 ft 507 kts 139°
2026-04-26 11:33 16.94222 63.18328 38838 ft 506 kts 140°
2026-04-26 11:33 16.88775 63.23004 38832 ft 506 kts 140°
2026-04-26 11:34 16.83366 63.27665 38835 ft 505 kts 140°
2026-04-26 11:34 16.77951 63.32350 38833 ft 505 kts 140°
2026-04-26 11:35 16.72581 63.36999 38835 ft 504 kts 140°
2026-04-26 11:35 16.68082 63.40892 38835 ft 504 kts 140°
2026-04-26 11:36 16.61762 63.46357 38831 ft 504 kts 140°
2026-04-26 11:36 16.56394 63.50991 38828 ft 503 kts 140°
2026-04-26 11:37 16.51011 63.55637 38831 ft 502 kts 140°
2026-04-26 11:37 16.45625 63.60282 38830 ft 502 kts 140°
2026-04-26 11:38 16.40249 63.64914 38831 ft 502 kts 140°
2026-04-26 11:38 16.34866 63.69549 38836 ft 501 kts 140°
2026-04-26 11:39 16.29488 63.74177 38834 ft 501 kts 140°
2026-04-26 11:39 16.24140 63.78775 38834 ft 501 kts 140°
2026-04-26 11:40 16.18768 63.83391 38836 ft 501 kts 140°
2026-04-26 11:40 16.13380 63.88017 38839 ft 500 kts 140°
2026-04-26 11:42 15.92856 64.05607 38843 ft 498 kts 141°
2026-04-26 11:43 15.87504 64.10186 38843 ft 498 kts 141°
2026-04-26 11:43 15.82156 64.14759 38844 ft 497 kts 141°
2026-04-26 11:44 15.76848 64.19294 38843 ft 497 kts 141°
2026-04-26 11:44 15.71501 64.23859 38843 ft 497 kts 141°
2026-04-26 11:45 15.66153 64.28422 38842 ft 496 kts 141°
2026-04-26 11:45 15.60816 64.32972 38844 ft 496 kts 141°
2026-04-26 11:46 15.55506 64.37496 38842 ft 496 kts 141°
2026-04-26 11:46 15.50158 64.42049 38845 ft 496 kts 141°
2026-04-26 11:47 15.44826 64.46586 38842 ft 496 kts 141°
2026-04-26 11:47 15.39525 64.51092 38843 ft 495 kts 141°
2026-04-26 11:48 15.34190 64.55626 38843 ft 495 kts 142°
2026-04-26 11:48 15.28856 64.60154 38841 ft 495 kts 142°
2026-04-26 11:49 15.23561 64.64647 38843 ft 495 kts 142°
2026-04-26 11:49 15.18227 64.69169 38841 ft 495 kts 142°
2026-04-26 11:50 15.12889 64.73692 38844 ft 495 kts 142°
2026-04-26 11:50 15.07597 64.78173 38845 ft 494 kts 142°
2026-04-26 11:51 15.02269 64.82682 38842 ft 494 kts 142°
2026-04-26 11:51 14.96936 64.87192 38843 ft 494 kts 142°
2026-04-26 11:52 14.91609 64.91693 38838 ft 494 kts 142°
2026-04-26 11:52 14.86324 64.96157 38841 ft 494 kts 142°
2026-04-26 11:53 14.80999 65.00652 38840 ft 493 kts 142°
2026-04-26 11:54 14.73018 65.07381 38840 ft 493 kts 142°
2026-04-26 11:54 14.67692 65.11870 38843 ft 493 kts 142°
2026-04-26 11:55 14.62369 65.16352 38844 ft 493 kts 142°
2026-04-26 11:55 14.57088 65.20797 38846 ft 493 kts 142°
2026-04-26 11:56 14.51764 65.25272 38844 ft 492 kts 142°
2026-04-26 11:56 14.46445 65.29738 38846 ft 492 kts 142°
2026-04-26 11:57 14.41156 65.34176 38839 ft 492 kts 142°
2026-04-26 11:57 14.35842 65.38634 38838 ft 492 kts 142°
2026-04-26 11:58 14.30525 65.43091 38839 ft 492 kts 142°
2026-04-26 11:58 14.25241 65.47518 38841 ft 491 kts 143°
2026-04-26 11:59 14.19910 65.51981 38836 ft 491 kts 143°
2026-04-26 11:59 14.14628 65.56402 38838 ft 491 kts 143°
2026-04-26 12:00 14.09315 65.60845 38844 ft 490 kts 143°
2026-04-26 12:00 14.04008 65.65279 38841 ft 490 kts 143°
2026-04-26 12:01 13.98743 65.69677 38845 ft 490 kts 143°
2026-04-26 12:01 13.93425 65.74116 38838 ft 490 kts 143°
2026-04-26 12:02 13.88161 65.78506 38837 ft 489 kts 143°
2026-04-26 12:02 13.82865 65.82922 38837 ft 489 kts 143°
2026-04-26 12:03 13.77571 65.87333 38838 ft 489 kts 143°
2026-04-26 12:03 13.72285 65.91734 38838 ft 489 kts 143°
2026-04-26 12:04 13.67028 65.96109 38839 ft 488 kts 143°
2026-04-26 12:04 13.61736 66.00511 38841 ft 488 kts 143°
2026-04-26 12:05 13.56478 66.04880 38835 ft 487 kts 144°
2026-04-26 12:05 13.51212 66.09255 38830 ft 487 kts 144°
2026-04-26 12:06 13.45930 66.13640 38830 ft 487 kts 144°
2026-04-26 12:06 13.40684 66.17992 38837 ft 486 kts 144°
2026-04-26 12:07 13.35421 66.22357 38840 ft 486 kts 144°
2026-04-26 12:07 13.30174 66.26706 38836 ft 485 kts 144°
2026-04-26 12:08 13.24923 66.31055 38836 ft 485 kts 144°
2026-04-26 12:08 13.19674 66.35400 38836 ft 484 kts 144°
2026-04-26 12:09 13.14463 66.39712 38837 ft 484 kts 144°
2026-04-26 12:09 13.09222 66.44045 38835 ft 484 kts 144°
2026-04-26 12:10 13.03986 66.48373 38836 ft 483 kts 144°
2026-04-26 12:10 12.98755 66.52693 38834 ft 483 kts 144°
2026-04-26 12:11 12.93514 66.57019 38834 ft 482 kts 144°
2026-04-26 12:11 12.88284 66.61334 38833 ft 482 kts 144°
2026-04-26 12:12 12.83090 66.65617 38834 ft 481 kts 144°
2026-04-26 12:12 12.77862 66.69926 38832 ft 481 kts 144°
2026-04-26 12:13 12.72649 66.74220 38833 ft 480 kts 144°
2026-04-26 12:13 12.67477 66.78477 38834 ft 480 kts 144°
2026-04-26 12:14 12.62266 66.82765 38834 ft 479 kts 144°
2026-04-26 12:14 12.57072 66.87036 38834 ft 478 kts 144°
2026-04-26 12:15 12.51908 66.91281 38833 ft 478 kts 144°
2026-04-26 12:15 12.46722 66.95541 38833 ft 477 kts 144°
2026-04-26 12:16 12.41547 66.99789 38832 ft 476 kts 144°
2026-04-26 12:16 12.36398 67.04015 38832 ft 476 kts 144°
2026-04-26 12:17 12.31229 67.08254 38831 ft 475 kts 144°
2026-04-26 12:17 12.26055 67.12496 38831 ft 475 kts 144°
2026-04-26 12:18 12.20931 67.16694 38832 ft 474 kts 144°
2026-04-26 12:18 12.15765 67.20925 38830 ft 473 kts 144°
2026-04-26 12:19 12.10662 67.25101 38829 ft 472 kts 144°
2026-04-26 12:19 12.05529 67.29301 38834 ft 471 kts 144°
2026-04-26 12:20 12.00402 67.33493 38836 ft 470 kts 144°
2026-04-26 12:20 11.95316 67.37651 38834 ft 469 kts 144°
2026-04-26 12:21 11.90215 67.41819 38833 ft 468 kts 144°
2026-04-26 12:21 11.85159 67.45948 38831 ft 467 kts 144°
2026-04-26 12:22 11.80070 67.50102 38830 ft 466 kts 145°
2026-04-26 12:22 11.75015 67.54226 38829 ft 465 kts 145°
2026-04-26 12:23 11.69968 67.58343 38829 ft 465 kts 145°
2026-04-26 12:23 11.64918 67.62459 38831 ft 464 kts 145°
2026-04-26 12:24 11.59905 67.66543 38828 ft 464 kts 145°
2026-04-26 12:24 11.54854 67.70656 38827 ft 463 kts 145°
2026-04-26 12:25 11.47301 67.76804 38833 ft 463 kts 145°
2026-04-26 12:25 11.42294 67.80876 38833 ft 462 kts 145°
2026-04-26 12:26 11.37260 67.84969 38829 ft 462 kts 145°
2026-04-26 12:26 11.32232 67.89055 38829 ft 462 kts 145°
2026-04-26 12:27 11.27204 67.93140 38830 ft 462 kts 145°
2026-04-26 12:27 11.22194 67.97207 38832 ft 462 kts 145°
2026-04-26 12:28 11.17170 68.01284 38830 ft 462 kts 145°
2026-04-26 12:28 11.12144 68.05361 38833 ft 462 kts 145°
2026-04-26 12:29 11.07145 68.09414 38833 ft 461 kts 145°
2026-04-26 12:30 10.99624 68.15509 38829 ft 461 kts 146°
2026-04-26 12:30 10.94599 68.19579 38834 ft 461 kts 146°
2026-04-26 12:31 10.87069 68.25673 38831 ft 461 kts 146°
2026-04-26 12:31 10.82053 68.29731 38833 ft 461 kts 146°
2026-04-26 12:32 10.77035 68.33789 38831 ft 461 kts 146°
2026-04-26 12:33 10.69515 68.39867 38832 ft 461 kts 146°
2026-04-26 12:33 10.64513 68.43908 38830 ft 461 kts 146°
2026-04-26 12:34 10.59487 68.47965 38831 ft 460 kts 146°
2026-04-26 12:34 10.54474 68.52011 38831 ft 460 kts 146°
2026-04-26 12:35 10.49453 68.56061 38829 ft 460 kts 146°
2026-04-26 12:35 10.44434 68.60108 38832 ft 460 kts 146°
2026-04-26 12:36 10.40272 68.63464 38832 ft 460 kts 146°
2026-04-26 12:36 10.35263 68.67499 38830 ft 460 kts 146°
2026-04-26 12:37 10.30245 68.71541 38830 ft 461 kts 146°
2026-04-26 12:37 10.25223 68.75584 38828 ft 461 kts 146°
2026-04-26 12:38 10.20201 68.79625 38830 ft 461 kts 146°
2026-04-26 12:38 10.15177 68.83666 38828 ft 461 kts 146°
2026-04-26 12:39 10.10153 68.87706 38829 ft 461 kts 146°
2026-04-26 12:39 10.05122 68.91749 38826 ft 461 kts 146°
2026-04-26 12:40 10.00105 68.95780 38829 ft 461 kts 146°
2026-04-26 12:40 9.95073 68.99821 38829 ft 461 kts 146°
2026-04-26 12:41 9.90040 69.03861 38828 ft 461 kts 146°
2026-04-26 12:41 9.84997 69.07908 38828 ft 461 kts 146°
2026-04-26 12:42 9.79964 69.11945 38828 ft 461 kts 146°
2026-04-26 12:42 9.74916 69.15993 38828 ft 462 kts 146°
2026-04-26 12:43 9.69886 69.20028 38828 ft 462 kts 146°
2026-04-26 12:43 9.64873 69.24038 38829 ft 462 kts 146°
2026-04-26 12:44 9.59830 69.28069 38834 ft 462 kts 146°
2026-04-26 12:44 9.54776 69.32110 38830 ft 462 kts 146°
2026-04-26 12:45 9.49740 69.36135 38832 ft 462 kts 146°
2026-04-26 12:45 9.44715 69.40151 38832 ft 462 kts 146°
2026-04-26 12:46 9.39642 69.44204 38832 ft 462 kts 146°
2026-04-26 12:46 9.34622 69.48213 38831 ft 462 kts 146°
2026-04-26 12:47 9.29576 69.52240 38832 ft 462 kts 146°
2026-04-26 12:47 9.24553 69.56248 38834 ft 462 kts 146°
2026-04-26 12:48 9.19494 69.60283 38836 ft 462 kts 146°
2026-04-26 12:48 9.14454 69.64302 38835 ft 462 kts 146°
2026-04-26 12:49 9.09419 69.68315 38832 ft 461 kts 146°
2026-04-26 12:49 9.04366 69.72341 38834 ft 461 kts 146°
2026-04-26 12:50 8.99348 69.76337 38831 ft 461 kts 146°
2026-04-26 12:50 8.94310 69.80348 38832 ft 461 kts 146°
2026-04-26 12:51 8.89272 69.84358 38830 ft 461 kts 146°
2026-04-26 12:51 8.84220 69.88377 38833 ft 461 kts 146°
2026-04-26 12:52 8.79185 69.92381 38830 ft 460 kts 146°
2026-04-26 12:52 8.74181 69.96360 38831 ft 460 kts 146°
2026-04-26 12:53 8.69141 70.00365 38833 ft 460 kts 146°
2026-04-26 12:53 8.64117 70.04357 38836 ft 460 kts 146°
2026-04-26 12:54 8.59085 70.08353 38834 ft 459 kts 146°
2026-04-26 12:54 8.54103 70.12344 38837 ft 459 kts 140°
2026-04-26 12:55 8.49199 70.16507 38832 ft 460 kts 143°
2026-04-26 12:55 8.44244 70.20559 38835 ft 460 kts 143°
2026-04-26 12:56 8.39197 70.24544 38836 ft 459 kts 146°
2026-04-26 12:56 8.34129 70.28427 38833 ft 458 kts 144°
2026-04-26 12:57 8.29100 70.32356 38839 ft 459 kts 145°
2026-04-26 12:57 8.24051 70.36313 38836 ft 459 kts 144°
2026-04-26 12:58 8.16515 70.42257 38836 ft 459 kts 146°
2026-04-26 12:58 8.11487 70.46221 38835 ft 459 kts 144°
2026-04-26 12:59 8.06479 70.50216 38837 ft 459 kts 146°
2026-04-26 12:59 8.01413 70.54159 38837 ft 459 kts 146°
2026-04-26 13:00 7.96361 70.58083 38837 ft 459 kts 146°
2026-04-26 13:00 7.91343 70.62042 38839 ft 459 kts 146°
2026-04-26 13:01 7.86305 70.66022 38840 ft 459 kts 146°
2026-04-26 13:01 7.81288 70.69976 38840 ft 459 kts 145°
2026-04-26 13:02 7.76230 70.73977 38840 ft 459 kts 146°
2026-04-26 13:02 7.71201 70.77939 38839 ft 460 kts 146°
2026-04-26 13:03 7.66167 70.81907 38839 ft 460 kts 146°
2026-04-26 13:03 7.61159 70.85924 38841 ft 460 kts 142°
2026-04-26 13:04 7.56225 70.90039 38838 ft 461 kts 143°
2026-04-26 13:04 7.51212 70.94057 38835 ft 461 kts 143°
2026-04-26 13:05 7.46214 70.98062 38842 ft 461 kts 143°
2026-04-26 13:05 7.41165 71.02040 38844 ft 461 kts 146°
2026-04-26 13:06 7.36028 71.05907 38840 ft 460 kts 146°
2026-04-26 13:06 7.30908 71.09809 38840 ft 461 kts 145°
2026-04-26 13:07 7.25864 71.13769 38838 ft 461 kts 145°
2026-04-26 13:07 7.20827 71.17719 38840 ft 461 kts 144°
2026-04-26 13:08 7.15773 71.21730 38839 ft 461 kts 144°
2026-04-26 13:08 7.10779 71.25720 38839 ft 461 kts 144°
2026-04-26 13:09 7.05731 71.29727 38843 ft 461 kts 144°
2026-04-26 13:09 7.00725 71.33720 38842 ft 461 kts 143°
2026-04-26 13:10 6.95671 71.37711 38843 ft 461 kts 144°
2026-04-26 13:10 6.90611 71.41648 38842 ft 460 kts 144°
2026-04-26 13:11 6.85554 71.45596 38844 ft 460 kts 144°
2026-04-26 13:11 6.80493 71.49548 38841 ft 460 kts 143°
2026-04-26 13:12 6.75448 71.53519 38839 ft 460 kts 143°
2026-04-26 13:12 6.70430 71.57543 38842 ft 461 kts 142°
2026-04-26 13:13 6.65416 71.61512 38842 ft 461 kts 143°
2026-04-26 13:13 6.60332 71.65454 38844 ft 460 kts 146°
2026-04-26 13:14 6.55222 71.69279 38841 ft 459 kts 146°
2026-04-26 13:14 6.50097 71.73149 38843 ft 460 kts 145°
2026-04-26 13:15 6.45066 71.77057 38843 ft 460 kts 145°
2026-04-26 13:15 6.40843 71.80353 38843 ft 460 kts 145°
2026-04-26 13:16 6.34968 71.84955 38842 ft 460 kts 145°
2026-04-26 13:16 6.29931 71.88899 38843 ft 460 kts 145°
2026-04-26 13:17 6.22356 71.94820 38840 ft 460 kts 145°
2026-04-26 13:18 6.14786 72.00738 38845 ft 460 kts 145°
2026-04-26 13:19 6.07199 72.06668 38843 ft 460 kts 145°
2026-04-26 13:19 6.02151 72.10612 38854 ft 460 kts 145°
2026-04-26 13:20 5.97120 72.14542 38837 ft 460 kts 145°
2026-04-26 13:20 5.92089 72.18471 38858 ft 460 kts 145°
2026-04-26 13:21 5.87027 72.22423 38839 ft 460 kts 145°
2026-04-26 13:21 5.81976 72.26366 38855 ft 460 kts 144°
2026-04-26 13:22 5.76902 72.30326 38835 ft 460 kts 144°
2026-04-26 13:22 5.71878 72.34246 38848 ft 460 kts 144°
2026-04-26 13:23 5.66819 72.38193 38838 ft 460 kts 144°
2026-04-26 13:23 5.61781 72.42121 38850 ft 460 kts 144°
2026-04-26 13:24 5.56716 72.46070 38834 ft 460 kts 144°
2026-04-26 13:24 5.51683 72.49993 38848 ft 460 kts 144°
2026-04-26 13:25 5.46604 72.53952 38849 ft 460 kts 144°
2026-04-26 13:25 5.41575 72.57871 38847 ft 460 kts 144°
2026-04-26 13:26 5.36507 72.61818 38848 ft 461 kts 144°
2026-04-26 13:26 5.31446 72.65760 38852 ft 461 kts 144°
2026-04-26 13:27 5.26377 72.69707 38841 ft 461 kts 144°
2026-04-26 13:27 5.21312 72.73651 38847 ft 461 kts 144°
2026-04-26 13:28 5.16248 72.77592 38850 ft 461 kts 144°
2026-04-26 13:28 5.11191 72.81528 38845 ft 461 kts 144°
2026-04-26 13:29 5.06121 72.85472 38847 ft 461 kts 144°
2026-04-26 13:29 5.01073 72.89398 38845 ft 461 kts 144°
2026-04-26 13:30 4.96004 72.93341 38847 ft 462 kts 144°
2026-04-26 13:30 4.90934 72.97283 38845 ft 462 kts 144°
2026-04-26 13:31 4.85850 73.01236 38846 ft 462 kts 144°
2026-04-26 13:31 4.80800 73.05199 38843 ft 462 kts 144°
2026-04-26 13:32 4.75770 73.09188 38843 ft 462 kts 144°
2026-04-26 13:32 4.70742 73.13175 38832 ft 462 kts 144°
2026-04-26 13:33 4.65671 73.17188 38838 ft 462 kts 144°
2026-04-26 13:33 4.60640 73.21166 38829 ft 462 kts 144°
2026-04-26 13:34 4.55618 73.25134 38832 ft 462 kts 144°
2026-04-26 13:34 4.50575 73.29119 38833 ft 462 kts 143°
2026-04-26 13:35 4.45532 73.33104 38831 ft 462 kts 143°
2026-04-26 13:35 4.41318 73.36432 38822 ft 462 kts 143°
2026-04-26 13:36 4.36271 73.40419 38834 ft 462 kts 143°
2026-04-26 13:36 4.31224 73.44404 38829 ft 461 kts 143°
2026-04-26 13:37 4.26197 73.48373 38827 ft 461 kts 143°
2026-04-26 13:37 4.21178 73.52371 38822 ft 462 kts 141°
2026-04-26 13:38 4.16423 73.56710 38832 ft 463 kts 139°
2026-04-26 13:38 4.11730 73.61128 38828 ft 463 kts 138°
2026-04-26 13:39 4.07068 73.65539 38830 ft 463 kts 138°
2026-04-26 13:39 4.02398 73.69948 38828 ft 463 kts 139°
2026-04-26 13:40 3.97714 73.74362 38829 ft 463 kts 139°
2026-04-26 13:40 3.93022 73.78780 38836 ft 463 kts 138°
2026-04-26 13:41 3.88328 73.83199 38844 ft 463 kts 138°
2026-04-26 13:41 3.83665 73.87589 38845 ft 463 kts 138°
2026-04-26 13:42 3.78961 73.92016 38838 ft 462 kts 138°
2026-04-26 13:42 3.74295 73.96408 38849 ft 462 kts 138°
2026-04-26 13:43 3.69607 74.00819 38851 ft 462 kts 138°
2026-04-26 13:43 3.64916 74.05233 38852 ft 461 kts 138°
2026-04-26 13:44 3.60240 74.09632 38852 ft 461 kts 139°
2026-04-26 13:44 3.55595 74.14035 38849 ft 461 kts 138°
2026-04-26 13:45 3.50977 74.18483 38853 ft 461 kts 138°
2026-04-26 13:45 3.46356 74.22938 38856 ft 460 kts 138°
2026-04-26 13:46 3.41756 74.27362 38857 ft 460 kts 138°
2026-04-26 13:46 3.37139 74.31796 38852 ft 460 kts 138°
2026-04-26 13:47 3.32536 74.36215 38859 ft 460 kts 138°
2026-04-26 13:47 3.27917 74.40648 38856 ft 460 kts 138°
2026-04-26 13:48 3.23306 74.45074 38858 ft 459 kts 138°
2026-04-26 13:48 3.18722 74.49474 38859 ft 459 kts 138°
2026-04-26 13:49 3.14105 74.53904 38852 ft 459 kts 138°
2026-04-26 13:49 3.09485 74.58337 38860 ft 459 kts 138°
2026-04-26 13:50 3.04879 74.62755 38860 ft 459 kts 138°
2026-04-26 13:50 3.00294 74.67153 38859 ft 459 kts 138°
2026-04-26 13:51 2.95683 74.71576 38855 ft 459 kts 138°
2026-04-26 13:51 2.91078 74.75992 38860 ft 459 kts 137°
2026-04-26 13:52 2.86495 74.80387 38853 ft 458 kts 137°
2026-04-26 13:52 2.81873 74.84818 38856 ft 458 kts 137°
2026-04-26 13:53 2.77280 74.89221 38856 ft 458 kts 137°
2026-04-26 13:53 2.72698 74.93613 38852 ft 458 kts 137°
2026-04-26 13:54 2.68090 74.98030 38858 ft 458 kts 137°
2026-04-26 13:54 2.63496 75.02433 38861 ft 458 kts 137°
2026-04-26 13:55 2.57354 75.08318 38858 ft 457 kts 137°
2026-04-26 13:56 2.49709 75.15643 38862 ft 457 kts 137°
2026-04-26 13:56 2.45138 75.20022 38859 ft 457 kts 137°
2026-04-26 13:57 2.40546 75.24420 38860 ft 457 kts 137°
2026-04-26 13:57 2.35940 75.28832 38854 ft 457 kts 137°
2026-04-26 13:58 2.31370 75.33208 38860 ft 457 kts 137°
2026-04-26 13:58 2.26775 75.37608 38860 ft 457 kts 137°
2026-04-26 13:59 2.22173 75.42015 38858 ft 457 kts 137°
2026-04-26 13:59 2.17602 75.46391 38856 ft 457 kts 137°
2026-04-26 14:00 2.08408 75.55192 38860 ft 457 kts 137°
2026-04-26 14:01 2.03834 75.59570 38859 ft 457 kts 137°
2026-04-26 14:01 1.99232 75.63976 38861 ft 457 kts 137°
2026-04-26 14:02 1.94646 75.68364 38862 ft 458 kts 137°
2026-04-26 14:02 1.90032 75.72779 38859 ft 458 kts 137°
2026-04-26 14:03 1.85455 75.77159 38860 ft 458 kts 137°
2026-04-26 14:03 1.80841 75.81575 38862 ft 458 kts 137°
2026-04-26 14:04 1.76260 75.85958 38860 ft 458 kts 137°
2026-04-26 14:04 1.71650 75.90368 38863 ft 458 kts 137°
2026-04-26 14:05 1.67042 75.94776 38866 ft 458 kts 136°
2026-04-26 14:05 1.62451 75.99168 38863 ft 458 kts 136°
2026-04-26 14:06 1.57866 76.03554 38863 ft 458 kts 136°
2026-04-26 14:06 1.53251 76.07969 38870 ft 458 kts 136°
2026-04-26 14:07 1.48662 76.12357 38865 ft 459 kts 136°
2026-04-26 14:07 1.44043 76.16775 38864 ft 459 kts 136°
2026-04-26 14:08 1.39454 76.21164 38865 ft 459 kts 136°
2026-04-26 14:08 1.34827 76.25588 38864 ft 459 kts 136°
2026-04-26 14:09 1.30213 76.30000 38863 ft 459 kts 136°
2026-04-26 14:09 1.25614 76.34397 38864 ft 459 kts 136°
2026-04-26 14:10 1.20997 76.38812 38867 ft 459 kts 136°
2026-04-26 14:10 1.16366 76.43240 38868 ft 460 kts 136°
2026-04-26 14:11 1.09446 76.49855 38868 ft 461 kts 136°
2026-04-26 14:11 1.04801 76.54295 38866 ft 462 kts 136°
2026-04-26 14:12 1.00147 76.58743 38869 ft 463 kts 136°
2026-04-26 14:12 0.95480 76.63205 38873 ft 464 kts 136°
2026-04-26 14:13 0.88472 76.69903 38872 ft 465 kts 136°
2026-04-26 14:14 0.83808 76.74362 38870 ft 466 kts 136°
2026-04-26 14:14 0.79099 76.78861 38875 ft 467 kts 136°
2026-04-26 14:15 0.74418 76.83335 38871 ft 468 kts 136°
2026-04-26 14:15 0.69723 76.87822 38874 ft 468 kts 136°
2026-04-26 14:16 0.65027 76.92310 38869 ft 468 kts 136°
2026-04-26 14:16 0.60314 76.96814 38873 ft 469 kts 136°
2026-04-26 14:17 0.55593 77.01325 38873 ft 469 kts 136°
2026-04-26 14:17 0.50867 77.05841 38878 ft 470 kts 136°
2026-04-26 14:18 0.46162 77.10337 38872 ft 470 kts 136°
2026-04-26 14:18 0.41457 77.14834 38875 ft 470 kts 136°
2026-04-26 14:19 0.36729 77.19350 38875 ft 470 kts 136°
2026-04-26 14:19 0.31998 77.23872 38874 ft 470 kts 136°
2026-04-26 14:20 0.27295 77.28365 38878 ft 470 kts 136°
2026-04-26 14:20 0.22576 77.32874 38875 ft 469 kts 136°
2026-04-26 14:21 0.17854 77.37386 38879 ft 469 kts 136°
2026-04-26 14:21 0.13146 77.41884 38878 ft 468 kts 136°
2026-04-26 14:22 0.08454 77.46368 38880 ft 468 kts 136°
2026-04-26 14:22 0.03747 77.50864 38877 ft 468 kts 136°
2026-04-26 14:23 -0.00943 77.55345 38877 ft 468 kts 136°
2026-04-26 14:23 -0.05662 77.59855 38879 ft 468 kts 136°
2026-04-26 14:24 -0.10354 77.64337 38878 ft 469 kts 136°
2026-04-26 14:24 -0.15069 77.68843 38881 ft 469 kts 136°
2026-04-26 14:25 -0.19789 77.73352 38879 ft 469 kts 136°
2026-04-26 14:25 -0.24483 77.77838 38878 ft 470 kts 136°
2026-04-26 14:26 -0.29210 77.82354 38879 ft 470 kts 136°
2026-04-26 14:26 -0.33949 77.86883 38878 ft 470 kts 136°
2026-04-26 14:27 -0.38649 77.91373 38880 ft 470 kts 136°
2026-04-26 14:27 -0.43378 77.95893 38880 ft 470 kts 136°
2026-04-26 14:28 -0.48111 78.00416 38881 ft 470 kts 136°
2026-04-26 14:28 -0.52842 78.04928 38880 ft 470 kts 136°
2026-04-26 14:29 -0.57545 78.09402 38880 ft 470 kts 136°
2026-04-26 14:29 -0.62295 78.13922 38879 ft 469 kts 136°
2026-04-26 14:30 -0.66995 78.18398 38884 ft 469 kts 136°
2026-04-26 14:30 -0.71727 78.22904 38883 ft 469 kts 136°
2026-04-26 14:31 -0.76441 78.27395 38882 ft 469 kts 136°
2026-04-26 14:31 -0.81157 78.31887 38881 ft 468 kts 136°
2026-04-26 14:32 -0.85876 78.36382 38883 ft 468 kts 136°
2026-04-26 14:32 -0.90571 78.40854 38884 ft 468 kts 136°
2026-04-26 14:33 -0.95300 78.45359 38884 ft 468 kts 136°
2026-04-26 14:33 -1.00009 78.49845 38885 ft 469 kts 136°
2026-04-26 14:34 -1.04729 78.54342 38883 ft 469 kts 136°
2026-04-26 14:34 -1.09424 78.58814 38885 ft 469 kts 136°
2026-04-26 14:35 -1.14144 78.63311 38882 ft 469 kts 136°
2026-04-26 14:35 -1.18855 78.67800 38882 ft 469 kts 136°
2026-04-26 14:36 -1.22786 78.71546 38883 ft 469 kts 136°
2026-04-26 14:36 -1.28298 78.76798 38887 ft 469 kts 136°
2026-04-26 14:37 -1.32226 78.80541 38887 ft 470 kts 136°
2026-04-26 14:37 -1.36953 78.85047 38887 ft 470 kts 136°
2026-04-26 14:38 -1.41678 78.89550 38887 ft 471 kts 136°
2026-04-26 14:38 -1.46423 78.94072 38889 ft 471 kts 136°
2026-04-26 14:39 -1.51178 78.98604 38888 ft 472 kts 136°
2026-04-26 14:39 -1.55902 79.03107 38891 ft 472 kts 136°
2026-04-26 14:40 -1.60667 79.07650 38893 ft 472 kts 136°
2026-04-26 14:40 -1.65402 79.12164 38893 ft 473 kts 136°
2026-04-26 14:41 -1.70167 79.16707 38892 ft 473 kts 136°
2026-04-26 14:41 -1.74915 79.21234 38890 ft 473 kts 136°
2026-04-26 14:42 -1.79687 79.25785 38896 ft 473 kts 136°
2026-04-26 14:42 -1.84461 79.30337 38895 ft 473 kts 136°
2026-04-26 14:43 -1.89203 79.34860 38895 ft 474 kts 136°
2026-04-26 14:43 -1.93973 79.39410 38893 ft 474 kts 137°
2026-04-26 14:44 -1.98756 79.43930 38895 ft 474 kts 139°
2026-04-26 14:44 -2.04063 79.47801 38899 ft 474 kts 146°
2026-04-26 14:45 -2.09603 79.51399 38900 ft 474 kts 147°
2026-04-26 14:45 -2.15178 79.54942 38899 ft 474 kts 148°
2026-04-26 14:46 -2.20731 79.58485 38899 ft 474 kts 147°
2026-04-26 14:46 -2.26259 79.62031 38899 ft 474 kts 147°
2026-04-26 14:47 -2.31813 79.65603 38901 ft 474 kts 147°
2026-04-26 14:47 -2.37353 79.69166 38901 ft 474 kts 147°
2026-04-26 14:48 -2.42906 79.72736 38901 ft 474 kts 147°
2026-04-26 14:48 -2.48457 79.76306 38895 ft 475 kts 147°
2026-04-26 14:49 -2.54018 79.79881 38897 ft 475 kts 147°
2026-04-26 14:49 -2.59575 79.83455 38897 ft 475 kts 147°
2026-04-26 14:50 -2.65144 79.87037 38901 ft 476 kts 147°
2026-04-26 14:50 -2.70704 79.90614 38899 ft 477 kts 147°
2026-04-26 14:51 -2.76279 79.94201 38899 ft 477 kts 147°
2026-04-26 14:51 -2.81844 79.97781 38899 ft 478 kts 147°
2026-04-26 14:52 -2.87442 80.01383 38900 ft 478 kts 147°
2026-04-26 14:52 -2.93057 80.04997 38904 ft 479 kts 147°
2026-04-26 14:53 -2.98633 80.08586 38906 ft 479 kts 147°
2026-04-26 14:53 -3.04263 80.12210 38902 ft 480 kts 147°
2026-04-26 14:54 -3.09857 80.15811 38904 ft 480 kts 147°
2026-04-26 14:54 -3.15475 80.19428 38901 ft 481 kts 147°
2026-04-26 14:55 -3.21103 80.23053 38902 ft 481 kts 146°
2026-04-26 14:55 -3.26719 80.26689 38899 ft 481 kts 147°
2026-04-26 14:56 -3.32334 80.30297 38903 ft 482 kts 147°
2026-04-26 14:56 -3.37977 80.33924 38904 ft 482 kts 147°
2026-04-26 14:57 -3.43604 80.37547 38902 ft 482 kts 147°
2026-04-26 14:57 -3.49262 80.41192 38904 ft 482 kts 147°
2026-04-26 14:58 -3.54868 80.44805 38903 ft 482 kts 147°
2026-04-26 14:58 -3.60516 80.48446 38902 ft 482 kts 147°
2026-04-26 14:59 -3.66138 80.52070 38903 ft 482 kts 147°
2026-04-26 14:59 -3.71777 80.55706 38906 ft 481 kts 147°
2026-04-26 15:00 -3.77370 80.59313 38902 ft 481 kts 147°
2026-04-26 15:00 -3.83010 80.62951 38902 ft 481 kts 147°
2026-04-26 15:01 -3.88613 80.66566 38902 ft 480 kts 147°
2026-04-26 15:01 -3.94212 80.70178 38901 ft 480 kts 147°
2026-04-26 15:02 -3.99836 80.73808 38902 ft 479 kts 147°
2026-04-26 15:02 -4.05447 80.77429 38904 ft 479 kts 147°
2026-04-26 15:03 -4.11043 80.81041 38900 ft 479 kts 147°
2026-04-26 15:03 -4.16622 80.84643 38903 ft 479 kts 147°
2026-04-26 15:04 -4.22233 80.88266 38904 ft 479 kts 147°
2026-04-26 15:04 -4.27855 80.91897 38906 ft 480 kts 147°
2026-04-26 15:05 -4.33435 80.95502 38902 ft 480 kts 147°
2026-04-26 15:05 -4.39056 80.99133 38904 ft 480 kts 147°
2026-04-26 15:06 -4.44679 81.02767 38908 ft 480 kts 147°
2026-04-26 15:06 -4.50278 81.06385 38900 ft 480 kts 147°
2026-04-26 15:07 -4.58696 81.11828 38905 ft 480 kts 147°
2026-04-26 15:07 -4.64319 81.15463 38908 ft 480 kts 147°
2026-04-26 15:08 -4.69905 81.19076 38902 ft 480 kts 147°
2026-04-26 15:08 -4.75526 81.22712 38903 ft 480 kts 147°
2026-04-26 15:09 -4.81141 81.26345 38902 ft 480 kts 147°
2026-04-26 15:09 -4.86716 81.29952 38904 ft 480 kts 147°
2026-04-26 15:10 -4.91416 81.32994 38902 ft 480 kts 147°
2026-04-26 15:10 -4.97957 81.37228 38905 ft 480 kts 147°
2026-04-26 15:11 -5.03542 81.40844 38911 ft 479 kts 147°
2026-04-26 15:11 -5.09125 81.44460 38905 ft 479 kts 147°
2026-04-26 15:12 -5.14730 81.48091 38905 ft 480 kts 147°
2026-04-26 15:12 -5.20356 81.51736 38905 ft 480 kts 147°
2026-04-26 15:13 -5.25968 81.55373 38908 ft 480 kts 147°
2026-04-26 15:13 -5.31573 81.59006 38909 ft 480 kts 147°
2026-04-26 15:14 -5.37174 81.62637 38910 ft 481 kts 147°
2026-04-26 15:14 -5.42801 81.66286 38907 ft 482 kts 147°
2026-04-26 15:15 -5.48426 81.69935 38903 ft 482 kts 147°
2026-04-26 15:15 -5.54074 81.73599 38905 ft 483 kts 147°
2026-04-26 15:16 -5.59701 81.77251 38905 ft 484 kts 147°
2026-04-26 15:16 -5.65377 81.80934 38910 ft 485 kts 147°
2026-04-26 15:17 -5.70077 81.83986 38910 ft 485 kts 147°
2026-04-26 15:17 -5.76673 81.88269 38908 ft 486 kts 147°
2026-04-26 15:18 -5.82355 81.91960 38909 ft 486 kts 147°
2026-04-26 15:18 -5.88005 81.95630 38908 ft 486 kts 146°
2026-04-26 15:19 -5.93694 81.99327 38908 ft 486 kts 146°
2026-04-26 15:19 -5.99365 82.03015 38913 ft 486 kts 147°
2026-04-26 15:20 -6.05030 82.06698 38910 ft 487 kts 147°
2026-04-26 15:20 -6.10735 82.10408 38906 ft 487 kts 147°
2026-04-26 15:21 -6.16405 82.14097 38907 ft 488 kts 147°
2026-04-26 15:21 -6.22099 82.17801 38911 ft 488 kts 147°
2026-04-26 15:22 -6.27786 82.21503 38909 ft 488 kts 147°
2026-04-26 15:22 -6.33505 82.25226 38914 ft 488 kts 147°
2026-04-26 15:23 -6.39210 82.28941 38912 ft 488 kts 147°
2026-04-26 15:23 -6.44911 82.32655 38916 ft 488 kts 147°
2026-04-26 15:24 -6.50574 82.36344 38916 ft 487 kts 147°
2026-04-26 15:24 -6.56256 82.40048 38912 ft 486 kts 147°
2026-04-26 15:25 -6.61011 82.43147 38915 ft 486 kts 147°
2026-04-26 15:25 -6.67588 82.47437 38914 ft 485 kts 147°
2026-04-26 15:26 -6.73248 82.51128 38917 ft 485 kts 147°
2026-04-26 15:26 -6.78928 82.54834 38918 ft 485 kts 146°
2026-04-26 15:27 -6.84604 82.58539 38920 ft 486 kts 147°
2026-04-26 15:27 -6.90254 82.62228 38918 ft 486 kts 147°
2026-04-26 15:28 -6.95926 82.65932 38920 ft 486 kts 147°
2026-04-26 15:28 -7.01613 82.69647 38921 ft 487 kts 147°
2026-04-26 15:29 -7.07264 82.73339 38921 ft 487 kts 147°
2026-04-26 15:30 -7.18629 82.80768 38919 ft 488 kts 147°
2026-04-26 15:30 -7.24357 82.84515 38921 ft 488 kts 147°
2026-04-26 15:31 -7.32849 82.90071 38925 ft 488 kts 147°
2026-04-26 15:32 -7.39517 82.94434 38921 ft 489 kts 147°
2026-04-26 15:32 -7.47092 82.99395 38924 ft 489 kts 147°
2026-04-26 15:33 -7.52813 83.03141 38924 ft 489 kts 147°
2026-04-26 15:33 -7.58536 83.06891 38925 ft 489 kts 147°
2026-04-26 15:34 -7.64218 83.10615 38926 ft 490 kts 147°
2026-04-26 15:34 -7.69936 83.14365 38926 ft 490 kts 147°
2026-04-26 15:35 -7.75654 83.18115 38929 ft 490 kts 147°
2026-04-26 15:35 -7.81336 83.21842 38927 ft 490 kts 147°
2026-04-26 15:36 -7.87053 83.25594 38930 ft 490 kts 147°
2026-04-26 15:36 -7.92777 83.29353 38930 ft 490 kts 147°
2026-04-26 15:37 -7.98470 83.33091 38930 ft 490 kts 147°
2026-04-26 15:37 -8.04187 83.36848 38926 ft 490 kts 147°
2026-04-26 15:38 -8.09915 83.40612 38926 ft 491 kts 147°
2026-04-26 15:38 -8.15618 83.44361 38931 ft 491 kts 147°
2026-04-26 15:39 -8.20406 83.47510 38930 ft 491 kts 147°
2026-04-26 15:39 -8.25164 83.50640 38930 ft 492 kts 147°
2026-04-26 15:40 -8.32795 83.55662 38928 ft 492 kts 147°
2026-04-26 15:40 -8.37610 83.58831 38926 ft 493 kts 147°
2026-04-26 15:41 -8.44276 83.63221 38930 ft 493 kts 147°
2026-04-26 15:41 -8.49094 83.66395 38931 ft 494 kts 146°
2026-04-26 15:42 -8.54827 83.70173 38928 ft 495 kts 147°
2026-04-26 15:42 -8.60609 83.73984 38934 ft 495 kts 146°
2026-04-26 15:43 -8.66356 83.77775 38933 ft 496 kts 147°
2026-04-26 15:44 -8.75031 83.83499 38929 ft 497 kts 147°
2026-04-26 15:44 -8.83727 83.89240 38935 ft 499 kts 147°
2026-04-26 15:45 -8.92444 83.94997 38934 ft 499 kts 147°
2026-04-26 15:46 -9.01144 84.00752 38937 ft 500 kts 146°
2026-04-26 15:46 -9.05879 84.04126 38936 ft 500 kts 143°
2026-04-26 15:47 -9.15197 84.11164 38937 ft 501 kts 143°
2026-04-26 15:48 -9.20783 84.15339 38937 ft 501 kts 143°
2026-04-26 15:48 -9.26401 84.19499 38940 ft 501 kts 144°
2026-04-26 15:49 -9.32034 84.23660 38935 ft 501 kts 144°
2026-04-26 15:49 -9.37664 84.27821 38938 ft 501 kts 144°
2026-04-26 15:50 -9.43295 84.31988 38941 ft 501 kts 144°
2026-04-26 15:50 -9.48917 84.36151 38939 ft 501 kts 144°
2026-04-26 15:51 -9.54511 84.40295 38936 ft 500 kts 144°
2026-04-26 15:51 -9.60138 84.44464 38940 ft 501 kts 144°
2026-04-26 15:52 -9.65762 84.48633 38939 ft 501 kts 144°
2026-04-26 15:52 -9.71380 84.52800 38942 ft 501 kts 144°
2026-04-26 15:53 -9.77002 84.56970 38942 ft 501 kts 144°
2026-04-26 15:53 -9.82600 84.61125 38943 ft 501 kts 144°
2026-04-26 15:54 -9.88229 84.65306 38942 ft 501 kts 144°
2026-04-26 15:54 -9.93869 84.69496 38946 ft 502 kts 144°
2026-04-26 15:55 -9.99512 84.73690 38946 ft 502 kts 144°
2026-04-26 15:55 -10.05130 84.77867 38945 ft 503 kts 144°
2026-04-26 15:56 -10.10760 84.82055 38945 ft 503 kts 144°
2026-04-26 15:56 -10.16410 84.86260 38947 ft 503 kts 144°
2026-04-26 15:57 -10.22030 84.90445 38947 ft 504 kts 144°
2026-04-26 15:57 -10.27705 84.94672 38947 ft 504 kts 144°
2026-04-26 15:58 -10.33370 84.98893 38948 ft 504 kts 144°
2026-04-26 15:58 -10.38995 85.03087 38948 ft 505 kts 144°
2026-04-26 15:59 -10.44670 85.07321 38950 ft 506 kts 144°
2026-04-26 15:59 -10.50348 85.11558 38949 ft 506 kts 144°
2026-04-26 16:00 -10.56001 85.15778 38950 ft 506 kts 144°
2026-04-26 16:00 -10.61684 85.20023 38949 ft 506 kts 144°
2026-04-26 16:01 -10.67354 85.24261 38950 ft 507 kts 144°
2026-04-26 16:01 -10.73038 85.28510 38951 ft 507 kts 144°
2026-04-26 16:02 -10.78722 85.32762 38947 ft 507 kts 144°
2026-04-26 16:02 -10.84382 85.36998 38951 ft 508 kts 144°
2026-04-26 16:03 -10.90091 85.41273 38950 ft 508 kts 144°
2026-04-26 16:03 -10.95791 85.45542 38951 ft 509 kts 144°
2026-04-26 16:04 -11.01457 85.49788 38948 ft 509 kts 144°
2026-04-26 16:04 -11.07193 85.54090 38953 ft 509 kts 144°
2026-04-26 16:05 -11.12880 85.58356 38952 ft 510 kts 144°
2026-04-26 16:05 -11.18577 85.62632 38955 ft 511 kts 144°
2026-04-26 16:06 -11.24324 85.66948 38954 ft 511 kts 144°
2026-04-26 16:06 -11.30019 85.71226 38949 ft 511 kts 144°
2026-04-26 16:07 -11.35746 85.75531 38957 ft 511 kts 144°
2026-04-26 16:07 -11.41458 85.79828 38953 ft 512 kts 144°
2026-04-26 16:08 -11.47202 85.84150 38955 ft 512 kts 144°
2026-04-26 16:08 -11.52947 85.88475 38958 ft 512 kts 144°
2026-04-26 16:09 -11.58662 85.92780 38958 ft 513 kts 144°
2026-04-26 16:09 -11.64416 85.97116 38955 ft 513 kts 145°
2026-04-26 16:10 -11.70140 86.01433 38955 ft 514 kts 145°
2026-04-26 16:10 -11.75903 86.05781 38958 ft 514 kts 145°
2026-04-26 16:11 -11.81630 86.10104 38956 ft 514 kts 145°
2026-04-26 16:11 -11.87396 86.14459 38960 ft 514 kts 145°
2026-04-26 16:12 -11.93116 86.18781 38960 ft 514 kts 145°
2026-04-26 16:12 -12.01743 86.25305 38961 ft 514 kts 145°
2026-04-26 16:13 -12.07510 86.29669 38960 ft 515 kts 145°
2026-04-26 16:13 -12.13249 86.34013 38966 ft 515 kts 145°
2026-04-26 16:14 -12.18980 86.38354 38954 ft 515 kts 145°
2026-04-26 16:15 -12.27629 86.44911 38960 ft 514 kts 145°
2026-04-26 16:15 -12.33344 86.49246 38958 ft 514 kts 145°
2026-04-26 16:16 -12.41954 86.55782 38962 ft 514 kts 146°
2026-04-26 16:16 -12.47700 86.60147 38963 ft 514 kts 146°
2026-04-26 16:17 -12.53446 86.64514 38967 ft 514 kts 146°
2026-04-26 16:17 -12.59179 86.68874 38963 ft 513 kts 146°
2026-04-26 16:18 -12.67783 86.75422 38964 ft 513 kts 146°
2026-04-26 16:19 -12.76372 86.81964 38963 ft 513 kts 146°
2026-04-26 16:20 -12.84933 86.88490 38962 ft 513 kts 146°
2026-04-26 16:20 -12.93540 86.95057 38966 ft 513 kts 146°
2026-04-26 16:21 -12.99247 86.99415 38965 ft 513 kts 146°
2026-04-26 16:21 -13.05018 87.03751 38966 ft 512 kts 147°
2026-04-26 16:22 -13.10812 87.07971 38970 ft 512 kts 147°
2026-04-26 16:22 -13.16635 87.12209 38967 ft 512 kts 147°
2026-04-26 16:23 -13.22434 87.16457 38971 ft 512 kts 147°
2026-04-26 16:23 -13.28230 87.20717 38969 ft 512 kts 147°
2026-04-26 16:24 -13.33981 87.24950 38975 ft 512 kts 147°
2026-04-26 16:24 -13.39777 87.29217 38973 ft 512 kts 147°
2026-04-26 16:25 -13.45549 87.33468 38974 ft 512 kts 147°
2026-04-26 16:25 -13.51356 87.37747 38964 ft 513 kts 147°
2026-04-26 16:26 -13.56172 87.41298 38969 ft 513 kts 147°
2026-04-26 16:26 -13.62932 87.46285 38971 ft 513 kts 147°
2026-04-26 16:27 -13.68737 87.50572 38986 ft 514 kts 148°
2026-04-26 16:27 -13.74573 87.54883 38971 ft 514 kts 148°
2026-04-26 16:28 -13.80341 87.59147 38974 ft 514 kts 148°
2026-04-26 16:28 -13.86151 87.63445 38975 ft 514 kts 148°
2026-04-26 16:29 -13.91980 87.67759 38977 ft 514 kts 148°
2026-04-26 16:29 -13.97790 87.72061 38976 ft 515 kts 148°
2026-04-26 16:30 -14.03581 87.76353 38975 ft 515 kts 148°
2026-04-26 16:30 -14.09399 87.80667 38978 ft 515 kts 148°
2026-04-26 16:31 -14.15218 87.84985 38979 ft 515 kts 148°
2026-04-26 16:31 -14.21034 87.89303 38980 ft 515 kts 148°
2026-04-26 16:32 -14.25891 87.92912 38980 ft 515 kts 148°
2026-04-26 16:32 -14.32674 87.97954 38982 ft 515 kts 148°
2026-04-26 16:33 -14.38449 88.02251 38983 ft 515 kts 148°
2026-04-26 16:33 -14.44287 88.06597 38978 ft 515 kts 148°
2026-04-26 16:34 -14.50080 88.10912 38980 ft 515 kts 148°
2026-04-26 16:34 -14.54934 88.14530 38980 ft 515 kts 148°
2026-04-26 16:35 -14.60725 88.18849 38983 ft 515 kts 148°
2026-04-26 16:35 -14.66529 88.23181 38985 ft 516 kts 148°
2026-04-26 16:36 -14.72372 88.27544 38984 ft 517 kts 148°
2026-04-26 16:36 -14.78179 88.31884 38986 ft 517 kts 148°
2026-04-26 16:37 -14.84008 88.36243 38985 ft 518 kts 148°
2026-04-26 16:37 -14.89855 88.40618 38986 ft 519 kts 148°
2026-04-26 16:38 -14.95681 88.44982 38985 ft 518 kts 148°
2026-04-26 16:38 -15.01519 88.49358 38987 ft 517 kts 148°
2026-04-26 16:39 -15.07343 88.53729 38988 ft 517 kts 148°
2026-04-26 16:39 -15.13152 88.58085 38986 ft 518 kts 148°
2026-04-26 16:40 -15.19006 88.62479 38988 ft 518 kts 148°
2026-04-26 16:40 -15.24831 88.66856 38990 ft 519 kts 148°
2026-04-26 16:41 -15.30681 88.71256 38988 ft 520 kts 148°
2026-04-26 16:41 -15.36509 88.75641 38989 ft 520 kts 148°
2026-04-26 16:42 -15.42370 88.80056 38992 ft 520 kts 148°
2026-04-26 16:42 -15.48235 88.84475 38995 ft 520 kts 148°
2026-04-26 16:43 -15.54083 88.88886 38993 ft 520 kts 149°
2026-04-26 16:43 -15.59937 88.93304 38994 ft 520 kts 149°
2026-04-26 16:44 -15.65763 88.97703 38996 ft 521 kts 149°
2026-04-26 16:44 -15.71637 89.02142 39002 ft 521 kts 149°
2026-04-26 16:45 -15.77477 89.06559 38995 ft 521 kts 149°
2026-04-26 16:45 -15.83341 89.10998 38998 ft 521 kts 149°
2026-04-26 16:46 -15.89166 89.15411 38998 ft 520 kts 149°
2026-04-26 16:46 -15.95024 89.19851 39000 ft 520 kts 149°
2026-04-26 16:47 -16.00861 89.24279 39000 ft 519 kts 149°
2026-04-26 16:47 -16.06709 89.28719 39000 ft 519 kts 149°
2026-04-26 16:48 -16.12517 89.33130 39001 ft 518 kts 150°
2026-04-26 16:48 -16.18311 89.37534 39001 ft 518 kts 150°
2026-04-26 16:49 -16.24129 89.41961 39008 ft 517 kts 150°
2026-04-26 16:49 -16.29925 89.46373 39005 ft 517 kts 150°
2026-04-26 16:50 -16.35739 89.50803 39007 ft 516 kts 150°
2026-04-26 16:50 -16.41537 89.55224 39008 ft 516 kts 150°
2026-04-26 16:51 -16.47305 89.59626 39008 ft 515 kts 150°
2026-04-26 16:51 -16.53102 89.64053 39005 ft 515 kts 150°
2026-04-26 16:52 -16.57911 89.67727 39010 ft 515 kts 150°
2026-04-26 16:52 -16.64622 89.72859 39010 ft 514 kts 150°
2026-04-26 16:53 -16.70408 89.77288 39013 ft 514 kts 150°
2026-04-26 16:53 -16.76166 89.81698 39013 ft 514 kts 150°
2026-04-26 16:54 -16.81894 89.86089 39015 ft 513 kts 150°
2026-04-26 16:54 -16.87652 89.90506 39014 ft 513 kts 150°
2026-04-26 16:55 -16.93383 89.94906 39013 ft 513 kts 150°
2026-04-26 16:55 -16.99163 89.99348 39012 ft 512 kts 150°
2026-04-26 16:56 -17.07753 90.05963 39018 ft 512 kts 150°
2026-04-26 16:57 -17.13469 90.10371 39021 ft 512 kts 150°
2026-04-26 16:57 -17.22037 90.16987 39020 ft 512 kts 150°
2026-04-26 16:58 -17.26831 90.20692 39018 ft 512 kts 150°
2026-04-26 16:59 -17.36338 90.28045 39022 ft 511 kts 149°
2026-04-26 17:00 -17.47764 90.36896 39022 ft 509 kts 149°
2026-04-26 17:00 -17.56272 90.43495 39017 ft 507 kts 149°
2026-04-26 17:01 -17.61912 90.47875 39037 ft 506 kts 149°
2026-04-26 17:01 -17.67568 90.52270 39023 ft 505 kts 149°
2026-04-26 17:02 -17.73213 90.56661 39023 ft 504 kts 149°
2026-04-26 17:02 -17.78810 90.61017 39033 ft 503 kts 148°
2026-04-26 17:03 -17.84429 90.65394 39028 ft 502 kts 148°
2026-04-26 17:03 -17.90047 90.69774 39034 ft 501 kts 148°
2026-04-26 17:04 -17.95627 90.74128 39031 ft 500 kts 148°
2026-04-26 17:04 -18.01202 90.78481 39031 ft 499 kts 148°
2026-04-26 17:05 -18.06755 90.82821 39034 ft 498 kts 148°
2026-04-26 17:05 -18.12327 90.87178 39042 ft 497 kts 148°
2026-04-26 17:06 -18.17874 90.91519 39036 ft 497 kts 148°
2026-04-26 17:06 -18.23407 90.95853 39036 ft 498 kts 148°
2026-04-26 17:07 -18.28986 91.00228 39035 ft 498 kts 148°
2026-04-26 17:07 -18.34530 91.04578 39034 ft 498 kts 148°
2026-04-26 17:08 -18.40048 91.08911 39034 ft 498 kts 148°
2026-04-26 17:08 -18.45608 91.13282 39035 ft 498 kts 148°
2026-04-26 17:09 -18.50218 91.16907 39040 ft 497 kts 148°
2026-04-26 17:09 -18.56681 91.21995 39040 ft 497 kts 147°
2026-04-26 17:10 -18.62240 91.26375 39039 ft 497 kts 147°
2026-04-26 17:10 -18.67757 91.30726 39040 ft 497 kts 147°
2026-04-26 17:11 -18.73293 91.35095 39041 ft 497 kts 147°
2026-04-26 17:11 -18.78848 91.39483 39039 ft 497 kts 147°
2026-04-26 17:12 -18.87141 91.46040 39044 ft 497 kts 147°
2026-04-26 17:13 -18.95392 91.52573 39046 ft 496 kts 147°
2026-04-26 17:14 -19.03682 91.59145 39045 ft 496 kts 147°
2026-04-26 17:14 -19.11960 91.65715 39053 ft 495 kts 147°
2026-04-26 17:15 -19.20197 91.72262 39051 ft 494 kts 147°
2026-04-26 17:16 -19.25693 91.76635 39040 ft 494 kts 147°
2026-04-26 17:16 -19.31189 91.81011 39057 ft 494 kts 147°
2026-04-26 17:17 -19.36639 91.85354 39046 ft 493 kts 147°
2026-04-26 17:17 -19.42129 91.89733 39051 ft 493 kts 147°
2026-04-26 17:18 -19.47589 91.94092 39054 ft 493 kts 147°
2026-04-26 17:18 -19.53066 91.98469 39054 ft 492 kts 146°
2026-04-26 17:19 -19.61239 92.05006 39054 ft 491 kts 146°
2026-04-26 17:19 -19.66710 92.09387 39054 ft 491 kts 146°
2026-04-26 17:20 -19.70349 92.12304 39059 ft 491 kts 146°
2026-04-26 17:20 -19.77600 92.18120 39055 ft 491 kts 146°
2026-04-26 17:21 -19.83040 92.22488 39058 ft 491 kts 146°
2026-04-26 17:21 -19.88493 92.26869 39056 ft 491 kts 146°
2026-04-26 17:22 -19.93916 92.31231 39058 ft 491 kts 146°
2026-04-26 17:22 -19.99372 92.35623 39056 ft 490 kts 146°
2026-04-26 17:23 -20.04784 92.39984 39061 ft 490 kts 146°
2026-04-26 17:23 -20.10225 92.44372 39061 ft 490 kts 146°
2026-04-26 17:24 -20.15677 92.48772 39058 ft 491 kts 146°
2026-04-26 17:24 -20.21094 92.53148 39062 ft 491 kts 146°
2026-04-26 17:25 -20.26530 92.57544 39066 ft 490 kts 146°
2026-04-26 17:25 -20.31962 92.61941 39063 ft 491 kts 146°
2026-04-26 17:26 -20.37381 92.66331 39063 ft 491 kts 146°
2026-04-26 17:26 -20.42807 92.70730 39064 ft 491 kts 146°
2026-04-26 17:27 -20.48242 92.75141 39063 ft 491 kts 146°
2026-04-26 17:27 -20.53673 92.79553 39066 ft 491 kts 147°
2026-04-26 17:28 -20.59110 92.83973 39064 ft 491 kts 147°
2026-04-26 17:28 -20.64524 92.88379 39066 ft 491 kts 147°
2026-04-26 17:29 -20.68154 92.91335 39065 ft 491 kts 147°
2026-04-26 17:29 -20.75385 92.97230 39067 ft 491 kts 147°
2026-04-26 17:30 -20.80833 93.01676 39066 ft 491 kts 147°
2026-04-26 17:30 -20.86250 93.06101 39067 ft 492 kts 147°
2026-04-26 17:31 -20.91681 93.10541 39066 ft 492 kts 147°
2026-04-26 17:31 -20.97125 93.14996 39072 ft 492 kts 147°
2026-04-26 17:32 -21.02551 93.19441 39072 ft 492 kts 147°
2026-04-26 17:32 -21.07989 93.23899 39071 ft 492 kts 147°
2026-04-26 17:33 -21.12513 93.27611 39070 ft 492 kts 147°
2026-04-26 17:34 -21.20653 93.34298 39074 ft 493 kts 147°
2026-04-26 17:34 -21.26980 93.39502 39071 ft 493 kts 147°
2026-04-26 17:35 -21.31533 93.43251 39077 ft 493 kts 147°
2026-04-26 17:35 -21.36937 93.47704 39078 ft 493 kts 147°
2026-04-26 17:36 -21.42393 93.52204 39075 ft 493 kts 147°
2026-04-26 17:36 -21.47801 93.56669 39077 ft 493 kts 147°
2026-04-26 17:37 -21.53235 93.61159 39075 ft 493 kts 147°
2026-04-26 17:37 -21.58678 93.65662 39077 ft 493 kts 147°
2026-04-26 17:38 -21.66828 93.72413 39076 ft 493 kts 147°
2026-04-26 17:38 -21.72241 93.76902 39074 ft 493 kts 147°
2026-04-26 17:39 -21.77666 93.81405 39072 ft 493 kts 147°
2026-04-26 17:39 -21.83099 93.85919 39079 ft 493 kts 147°
2026-04-26 17:40 -21.87610 93.89671 39079 ft 493 kts 147°
2026-04-26 17:40 -21.93973 93.94968 39081 ft 494 kts 147°
2026-04-26 17:41 -21.99377 93.99471 39074 ft 494 kts 147°
2026-04-26 17:41 -22.04684 94.04249 39078 ft 498 kts 142°
2026-04-26 17:42 -22.09725 94.09392 39081 ft 499 kts 141°
2026-04-26 17:42 -22.14718 94.14524 39080 ft 499 kts 141°
2026-04-26 17:43 -22.19786 94.19627 39078 ft 498 kts 142°
2026-04-26 17:43 -22.24891 94.24705 39075 ft 498 kts 142°
2026-04-26 17:44 -22.30002 94.29781 39078 ft 499 kts 142°
2026-04-26 17:44 -22.35093 94.34848 39083 ft 499 kts 142°
2026-04-26 17:45 -22.40196 94.39937 39080 ft 499 kts 142°
2026-04-26 17:45 -22.45270 94.45003 39080 ft 499 kts 142°
2026-04-26 17:46 -22.50378 94.50110 39081 ft 500 kts 142°
2026-04-26 17:46 -22.55453 94.55187 39083 ft 500 kts 142°
2026-04-26 17:47 -22.59707 94.59448 39080 ft 500 kts 142°
2026-04-26 17:47 -22.65661 94.65416 39079 ft 500 kts 142°
2026-04-26 17:48 -22.70779 94.70553 39078 ft 500 kts 142°
2026-04-26 17:48 -22.75846 94.75645 39078 ft 501 kts 142°
2026-04-26 17:49 -22.80965 94.80794 39080 ft 501 kts 142°
2026-04-26 17:49 -22.86055 94.85919 39081 ft 501 kts 142°
2026-04-26 17:50 -22.91168 94.91074 39085 ft 501 kts 142°
2026-04-26 17:50 -22.96268 94.96221 39080 ft 502 kts 142°
2026-04-26 17:51 -23.01399 95.01394 39079 ft 502 kts 142°
2026-04-26 17:51 -23.06615 95.06404 39084 ft 501 kts 144°
2026-04-26 17:52 -23.11899 95.11331 39081 ft 500 kts 144°
2026-04-26 17:52 -23.17154 95.16245 39071 ft 501 kts 144°
2026-04-26 17:53 -23.22402 95.21202 39087 ft 501 kts 144°
2026-04-26 17:54 -23.30276 95.28685 39080 ft 502 kts 144°
2026-04-26 17:54 -23.35554 95.33709 39080 ft 502 kts 144°
2026-04-26 17:55 -23.40793 95.38700 39085 ft 503 kts 144°
2026-04-26 17:55 -23.46063 95.43725 39084 ft 503 kts 144°
2026-04-26 17:56 -23.51308 95.48731 39081 ft 503 kts 144°
2026-04-26 17:57 -23.61854 95.58814 39084 ft 504 kts 144°
2026-04-26 17:57 -23.67105 95.63843 39082 ft 504 kts 144°
2026-04-26 17:58 -23.77639 95.73948 39085 ft 505 kts 144°
2026-04-26 17:59 -23.85529 95.81533 39082 ft 505 kts 144°
2026-04-26 17:59 -23.90810 95.86616 39083 ft 505 kts 144°
2026-04-26 18:00 -23.96089 95.91703 39084 ft 506 kts 144°
2026-04-26 18:00 -24.01370 95.96798 39083 ft 506 kts 144°
2026-04-26 18:01 -24.06629 96.01877 39082 ft 506 kts 144°
2026-04-26 18:01 -24.11894 96.06967 39081 ft 507 kts 144°
2026-04-26 18:02 -24.16317 96.11249 39085 ft 507 kts 144°
2026-04-26 18:02 -24.22469 96.17211 39081 ft 507 kts 144°
2026-04-26 18:03 -24.27731 96.22317 39082 ft 507 kts 143°
2026-04-26 18:03 -24.33026 96.27460 39084 ft 508 kts 143°
2026-04-26 18:04 -24.38316 96.32604 39085 ft 508 kts 143°
2026-04-26 18:05 -24.46025 96.40582 39084 ft 510 kts 137°
2026-04-26 18:05 -24.51183 96.45955 39084 ft 511 kts 138°
2026-04-26 18:06 -24.56463 96.51171 39089 ft 510 kts 135°
2026-04-26 18:06 -24.61618 96.56450 39084 ft 509 kts 139°
2026-04-26 18:07 -24.66900 96.61676 39079 ft 509 kts 138°
2026-04-26 18:07 -24.72191 96.66880 39085 ft 510 kts 140°
2026-04-26 18:08 -24.77569 96.71920 39086 ft 510 kts 141°
2026-04-26 18:08 -24.82899 96.77105 39086 ft 510 kts 137°
2026-04-26 18:09 -24.88224 96.82301 39087 ft 511 kts 142°
2026-04-26 18:09 -24.93600 96.87408 39086 ft 510 kts 142°
2026-04-26 18:10 -24.98923 96.92550 39085 ft 511 kts 139°
2026-04-26 18:10 -25.04205 96.97813 39085 ft 512 kts 137°
2026-04-26 18:11 -25.09407 97.03206 39089 ft 513 kts 138°
2026-04-26 18:11 -25.14697 97.08486 39097 ft 513 kts 140°
2026-04-26 18:12 -25.20029 97.13682 39080 ft 513 kts 141°
2026-04-26 18:12 -25.25365 97.18910 39085 ft 513 kts 141°
2026-04-26 18:13 -25.30686 97.24148 39084 ft 513 kts 140°
2026-04-26 18:13 -25.35938 97.29496 39081 ft 514 kts 136°
2026-04-26 18:14 -25.41163 97.34933 39087 ft 514 kts 136°
2026-04-26 18:14 -25.46290 97.40384 39071 ft 514 kts 137°
2026-04-26 18:15 -25.51565 97.45680 39089 ft 511 kts 138°
2026-04-26 18:15 -25.56930 97.50875 39084 ft 512 kts 138°
2026-04-26 18:16 -25.62273 97.56112 39083 ft 513 kts 138°
2026-04-26 18:16 -25.70205 97.64057 39083 ft 514 kts 136°
2026-04-26 18:17 -25.75451 97.69447 39078 ft 512 kts 135°
2026-04-26 18:17 -25.80698 97.74782 39087 ft 511 kts 137°
2026-04-26 18:18 -25.85950 97.80046 39082 ft 510 kts 137°
2026-04-26 18:18 -25.91190 97.85324 39083 ft 509 kts 137°
2026-04-26 18:19 -25.96444 97.90573 39085 ft 509 kts 138°
2026-04-26 18:19 -26.01682 97.95872 39086 ft 508 kts 137°
2026-04-26 18:20 -26.06910 98.01137 39086 ft 508 kts 140°
2026-04-26 18:20 -26.10464 98.04623 39087 ft 510 kts 137°
2026-04-26 18:21 -26.17505 98.11684 39086 ft 512 kts 136°
2026-04-26 18:21 -26.22755 98.17049 39084 ft 513 kts 136°
2026-04-26 18:22 -26.28020 98.22416 39084 ft 514 kts 137°
2026-04-26 18:22 -26.33267 98.27839 39112 ft 515 kts 127°
2026-04-26 18:23 -26.35665 98.30824 39148 ft 514 kts 138°
2026-04-26 18:23 -26.38313 98.33465 39100 ft 513 kts 146°
2026-04-26 18:23 -26.43976 98.38281 39082 ft 515 kts 147°
2026-04-26 18:24 -26.49580 98.43334 39081 ft 517 kts 144°
2026-04-26 18:24 -26.54959 98.48642 39093 ft 519 kts 142°
2026-04-26 18:25 -26.60281 98.54126 39084 ft 520 kts 142°
2026-04-26 18:25 -26.65588 98.59620 39088 ft 520 kts 142°
2026-04-26 18:26 -26.70893 98.65089 39088 ft 520 kts 142°
2026-04-26 18:26 -26.76220 98.70569 39088 ft 520 kts 142°
2026-04-26 18:27 -26.81547 98.76053 39085 ft 520 kts 142°
2026-04-26 18:27 -26.86868 98.81538 39091 ft 521 kts 142°
2026-04-26 18:28 -26.92228 98.87072 39094 ft 521 kts 142°
2026-04-26 18:28 -26.96661 98.91654 39089 ft 521 kts 141°
2026-04-26 18:29 -27.01974 98.97154 39088 ft 522 kts 141°
2026-04-26 18:29 -27.07302 99.02677 39091 ft 522 kts 141°
2026-04-26 18:30 -27.13514 99.09125 39091 ft 522 kts 141°
2026-04-26 18:30 -27.17960 99.13746 39089 ft 522 kts 141°
2026-04-26 18:31 -27.23288 99.19291 39095 ft 523 kts 141°
2026-04-26 18:31 -27.28637 99.24866 39092 ft 523 kts 141°
2026-04-26 18:32 -27.33955 99.30416 39093 ft 523 kts 141°
2026-04-26 18:32 -27.39290 99.35991 39095 ft 523 kts 141°
2026-04-26 18:33 -27.44639 99.41587 39094 ft 524 kts 141°
2026-04-26 18:33 -27.49946 99.47149 39093 ft 524 kts 141°
2026-04-26 18:34 -27.55271 99.52737 39094 ft 524 kts 141°
2026-04-26 18:34 -27.60618 99.58355 39096 ft 524 kts 141°
2026-04-26 18:35 -27.65953 99.63970 39092 ft 524 kts 141°
2026-04-26 18:35 -27.71274 99.69577 39097 ft 524 kts 141°
2026-04-26 18:36 -27.76608 99.75207 39099 ft 524 kts 141°
2026-04-26 18:36 -27.81942 99.80843 39097 ft 525 kts 141°
2026-04-26 18:37 -27.87233 99.86442 39101 ft 525 kts 141°
2026-04-26 18:37 -27.92570 99.92097 39098 ft 525 kts 141°
2026-04-26 18:38 -27.97899 99.97761 39098 ft 526 kts 140°
2026-04-26 18:38 -28.02599 100.04138 39102 ft 531 kts 130°
2026-04-26 18:39 -28.06901 100.10940 39104 ft 532 kts 128°
2026-04-26 18:39 -28.11116 100.17826 39101 ft 533 kts 128°
2026-04-26 18:40 -28.15336 100.24720 39098 ft 532 kts 128°
2026-04-26 18:40 -28.19578 100.31612 39103 ft 532 kts 128°
2026-04-26 18:41 -28.23830 100.38512 39103 ft 533 kts 128°
2026-04-26 18:41 -28.28048 100.45362 39104 ft 533 kts 128°
2026-04-26 18:42 -28.32290 100.52266 39111 ft 533 kts 128°
2026-04-26 18:42 -28.36516 100.59157 39099 ft 533 kts 128°
2026-04-26 18:43 -28.40758 100.66086 39103 ft 533 kts 128°
2026-04-26 18:43 -28.44982 100.72995 39106 ft 533 kts 127°
2026-04-26 18:44 -28.49213 100.79929 39104 ft 533 kts 127°
2026-04-26 18:44 -28.53447 100.86878 39102 ft 533 kts 127°
2026-04-26 18:45 -28.57649 100.93785 39102 ft 534 kts 127°
2026-04-26 18:45 -28.61881 101.00753 39104 ft 534 kts 127°
2026-04-26 18:46 -28.66082 101.07682 39110 ft 534 kts 127°
2026-04-26 18:46 -28.70290 101.14634 39108 ft 534 kts 127°
2026-04-26 18:47 -28.74500 101.21600 39107 ft 534 kts 127°
2026-04-26 18:47 -28.78716 101.28588 39108 ft 534 kts 127°
2026-04-26 18:48 -28.82930 101.35583 39106 ft 534 kts 127°
2026-04-26 18:48 -28.87124 101.42560 39108 ft 534 kts 127°
2026-04-26 18:49 -28.91328 101.49562 39110 ft 534 kts 127°
2026-04-26 18:49 -28.95503 101.56528 39112 ft 534 kts 127°
2026-04-26 18:50 -28.99708 101.63557 39108 ft 534 kts 127°
2026-04-26 18:50 -29.03882 101.70545 39111 ft 535 kts 127°
2026-04-26 18:51 -29.08091 101.77603 39105 ft 535 kts 127°
2026-04-26 18:51 -29.12275 101.84631 39110 ft 535 kts 127°
2026-04-26 18:52 -29.15744 101.90468 39111 ft 535 kts 127°
2026-04-26 18:52 -29.20633 101.98708 39107 ft 535 kts 127°
2026-04-26 18:53 -29.24808 102.05756 39108 ft 535 kts 127°
2026-04-26 18:53 -29.28985 102.12821 39111 ft 535 kts 126°
2026-04-26 18:54 -29.33143 102.19865 39111 ft 535 kts 126°
2026-04-26 18:54 -29.37308 102.26933 39099 ft 535 kts 126°
2026-04-26 18:55 -29.41475 102.34018 39106 ft 535 kts 126°
2026-04-26 18:55 -29.45617 102.41070 39113 ft 535 kts 126°
2026-04-26 18:56 -29.49786 102.48189 39097 ft 535 kts 126°
2026-04-26 18:56 -29.53904 102.55249 39115 ft 535 kts 126°
2026-04-26 18:57 -29.57381 102.61187 39101 ft 535 kts 126°
2026-04-26 18:57 -29.62218 102.69462 39105 ft 535 kts 126°
2026-04-26 18:58 -29.66367 102.76586 39104 ft 535 kts 126°
2026-04-26 18:58 -29.70484 102.83670 39104 ft 535 kts 126°
2026-04-26 18:59 -29.74625 102.90810 39104 ft 535 kts 126°
2026-04-26 18:59 -29.78757 102.97946 39104 ft 535 kts 126°
2026-04-26 19:00 -29.82857 103.05038 39106 ft 535 kts 126°
2026-04-26 19:00 -29.86981 103.12184 39108 ft 535 kts 126°
2026-04-26 19:01 -29.91090 103.19316 39107 ft 535 kts 126°
2026-04-26 19:01 -29.95205 103.26472 39103 ft 535 kts 126°
2026-04-26 19:02 -29.99309 103.33620 39101 ft 535 kts 126°
2026-04-26 19:02 -30.02724 103.39580 39104 ft 535 kts 126°
2026-04-26 19:03 -30.07525 103.47972 39107 ft 535 kts 126°
2026-04-26 19:03 -30.11623 103.55148 39102 ft 535 kts 126°
2026-04-26 19:04 -30.15717 103.62330 39104 ft 535 kts 126°
2026-04-26 19:04 -30.19788 103.69483 39099 ft 535 kts 126°
2026-04-26 19:05 -30.25909 103.80266 39104 ft 535 kts 126°
2026-04-26 19:06 -30.30005 103.87496 39105 ft 535 kts 125°
2026-04-26 19:06 -30.34066 103.94678 39103 ft 535 kts 125°
2026-04-26 19:07 -30.38130 104.01878 39100 ft 535 kts 125°
2026-04-26 19:07 -30.42197 104.09097 39102 ft 535 kts 125°
2026-04-26 19:08 -30.46256 104.16315 39102 ft 535 kts 125°
2026-04-26 19:08 -30.50314 104.23544 39105 ft 535 kts 125°
2026-04-26 19:09 -30.54367 104.30777 39100 ft 534 kts 125°
2026-04-26 19:09 -30.58389 104.37967 39100 ft 534 kts 125°
2026-04-26 19:10 -30.62440 104.45224 39100 ft 534 kts 125°
2026-04-26 19:10 -30.66463 104.52442 39101 ft 534 kts 125°
2026-04-26 19:11 -30.70491 104.59684 39102 ft 533 kts 125°
2026-04-26 19:11 -30.74514 104.66930 39102 ft 533 kts 125°
2026-04-26 19:12 -30.78514 104.74145 39101 ft 533 kts 124°
2026-04-26 19:12 -30.82520 104.81387 39101 ft 532 kts 124°
2026-04-26 19:13 -30.86519 104.88630 39097 ft 532 kts 124°
2026-04-26 19:13 -30.90522 104.95891 39097 ft 532 kts 124°
2026-04-26 19:14 -30.94523 105.03163 39096 ft 531 kts 124°
2026-04-26 19:14 -30.98499 105.10404 39101 ft 531 kts 124°
2026-04-26 19:15 -31.02476 105.17660 39097 ft 531 kts 124°
2026-04-26 19:15 -31.06450 105.24924 39096 ft 531 kts 124°
2026-04-26 19:16 -31.10407 105.32169 39097 ft 531 kts 124°
2026-04-26 19:16 -31.14368 105.39437 39099 ft 531 kts 124°
2026-04-26 19:17 -31.18324 105.46708 39094 ft 531 kts 124°
2026-04-26 19:17 -31.22277 105.53987 39092 ft 531 kts 124°
2026-04-26 19:18 -31.26250 105.61316 39092 ft 531 kts 124°
2026-04-26 19:18 -31.30175 105.68571 39097 ft 531 kts 124°
2026-04-26 19:19 -31.34117 105.75870 39090 ft 531 kts 124°
2026-04-26 19:19 -31.37410 105.81980 39096 ft 531 kts 123°
2026-04-26 19:20 -31.41330 105.89264 39095 ft 530 kts 123°
2026-04-26 19:20 -31.45246 105.96554 39090 ft 530 kts 123°
2026-04-26 19:21 -31.49177 106.03887 39093 ft 530 kts 123°
2026-04-26 19:21 -31.53094 106.11208 39091 ft 530 kts 123°
2026-04-26 19:22 -31.57002 106.18525 39095 ft 529 kts 123°
2026-04-26 19:22 -31.60890 106.25820 39091 ft 529 kts 123°
2026-04-26 19:23 -31.64782 106.33135 39088 ft 529 kts 123°
2026-04-26 19:23 -31.68687 106.40489 39094 ft 529 kts 123°
2026-04-26 19:24 -31.72553 106.47781 39092 ft 529 kts 123°
2026-04-26 19:24 -31.78400 106.58842 39090 ft 529 kts 123°
2026-04-26 19:25 -31.81621 106.64947 39090 ft 529 kts 123°
2026-04-26 19:25 -31.86119 106.73491 39092 ft 528 kts 123°
2026-04-26 19:26 -31.89996 106.80868 39092 ft 528 kts 122°
2026-04-26 19:26 -31.93853 106.88222 39089 ft 527 kts 122°
2026-04-26 19:27 -31.97685 106.95545 39088 ft 527 kts 122°
2026-04-26 19:27 -32.01102 107.03198 39092 ft 527 kts 114°
2026-04-26 19:28 -32.03955 107.11107 39092 ft 527 kts 112°
2026-04-26 19:28 -32.06710 107.19113 39092 ft 527 kts 112°
2026-04-26 19:29 -32.09448 107.27121 39091 ft 527 kts 112°
2026-04-26 19:29 -32.12211 107.35153 39098 ft 526 kts 112°
2026-04-26 19:30 -32.14973 107.43166 39094 ft 526 kts 112°
2026-04-26 19:30 -32.17267 107.49826 39095 ft 526 kts 112°
2026-04-26 19:31 -32.20462 107.59131 39091 ft 526 kts 112°
2026-04-26 19:31 -32.23210 107.67156 39094 ft 526 kts 112°
2026-04-26 19:32 -32.25940 107.75150 39094 ft 526 kts 112°
2026-04-26 19:32 -32.28679 107.83191 39087 ft 527 kts 112°
2026-04-26 19:33 -32.31408 107.91219 39102 ft 527 kts 111°
2026-04-26 19:33 -32.34131 107.99254 39088 ft 528 kts 111°
2026-04-26 19:34 -32.36858 108.07315 39099 ft 528 kts 111°
2026-04-26 19:34 -32.39582 108.15392 39104 ft 528 kts 111°
2026-04-26 19:35 -32.42298 108.23464 39090 ft 529 kts 111°
2026-04-26 19:35 -32.45022 108.31576 39093 ft 530 kts 111°
2026-04-26 19:36 -32.47275 108.38306 39096 ft 530 kts 111°
2026-04-26 19:36 -32.50438 108.47777 39094 ft 531 kts 111°
2026-04-26 19:37 -32.53160 108.55948 39098 ft 531 kts 111°
2026-04-26 19:37 -32.55869 108.64100 39093 ft 532 kts 110°
2026-04-26 19:38 -32.58581 108.72281 39095 ft 533 kts 110°
2026-04-26 19:38 -32.61285 108.80460 39095 ft 533 kts 110°
2026-04-26 19:39 -32.63976 108.88623 39092 ft 534 kts 110°
2026-04-26 19:39 -32.66682 108.96852 39093 ft 534 kts 110°
2026-04-26 19:40 -32.69376 109.05065 39095 ft 535 kts 110°
2026-04-26 19:40 -32.72065 109.13284 39091 ft 535 kts 110°
2026-04-26 19:41 -32.74764 109.21554 39091 ft 536 kts 109°
2026-04-26 19:41 -32.77005 109.28437 39091 ft 536 kts 109°
2026-04-26 19:42 -32.80137 109.38084 39093 ft 536 kts 109°
2026-04-26 19:42 -32.82815 109.46355 39090 ft 537 kts 109°
2026-04-26 19:43 -32.85479 109.54605 39089 ft 537 kts 109°
2026-04-26 19:43 -32.88147 109.62887 39089 ft 537 kts 109°
2026-04-26 19:44 -32.90828 109.71234 39092 ft 537 kts 109°
2026-04-26 19:44 -32.93471 109.79483 39091 ft 538 kts 109°
2026-04-26 19:45 -32.96148 109.87865 39091 ft 538 kts 109°
2026-04-26 19:45 -32.98785 109.96139 39090 ft 538 kts 108°
2026-04-26 19:46 -33.01391 110.04536 39089 ft 538 kts 107°
2026-04-26 19:46 -33.03660 110.12976 39089 ft 537 kts 105°
2026-04-26 19:47 -33.05497 110.20115 39090 ft 537 kts 104°
2026-04-26 19:47 -33.08068 110.30050 39095 ft 538 kts 104°
2026-04-26 19:48 -33.10303 110.38533 39096 ft 538 kts 104°
2026-04-26 19:48 -33.12566 110.47072 39090 ft 538 kts 104°
2026-04-26 19:49 -33.14817 110.55584 39097 ft 539 kts 104°
2026-04-26 19:49 -33.17066 110.64118 39097 ft 539 kts 104°
2026-04-26 19:50 -33.19298 110.72619 39094 ft 540 kts 104°
2026-04-26 19:50 -33.21540 110.81192 39089 ft 540 kts 104°
2026-04-26 19:51 -33.23774 110.89756 39092 ft 541 kts 104°
2026-04-26 19:51 -33.26007 110.98341 39092 ft 542 kts 104°
2026-04-26 19:52 -33.28240 111.06957 39091 ft 542 kts 104°
2026-04-26 19:52 -33.30459 111.15546 39095 ft 543 kts 104°
2026-04-26 19:53 -33.32686 111.24189 39088 ft 543 kts 104°
2026-04-26 19:53 -33.34902 111.32821 39088 ft 543 kts 103°
2026-04-26 19:54 -33.37114 111.41461 39094 ft 544 kts 103°
2026-04-26 19:54 -33.39308 111.50062 39089 ft 544 kts 103°
2026-04-26 19:55 -33.41511 111.58730 39092 ft 544 kts 103°
2026-04-26 19:55 -33.43712 111.67412 39101 ft 544 kts 103°
2026-04-26 19:56 -33.45905 111.76094 39092 ft 545 kts 103°
2026-04-26 19:56 -33.48096 111.84797 39091 ft 546 kts 103°
2026-04-26 19:57 -33.50268 111.93449 39097 ft 546 kts 103°
2026-04-26 19:57 -33.52450 112.02169 39089 ft 546 kts 103°
2026-04-26 19:58 -33.54626 112.10898 39088 ft 546 kts 103°
2026-04-26 19:58 -33.56784 112.19581 39094 ft 546 kts 103°
2026-04-26 19:59 -33.58949 112.28321 39091 ft 546 kts 103°
2026-04-26 19:59 -33.61108 112.37067 39089 ft 546 kts 103°
2026-04-26 20:00 -33.63258 112.45808 39091 ft 546 kts 103°
2026-04-26 20:00 -33.65390 112.54499 39091 ft 546 kts 103°
2026-04-26 20:01 -33.67526 112.63237 39092 ft 545 kts 102°
2026-04-26 20:01 -33.69654 112.71973 39090 ft 545 kts 102°
2026-04-26 20:02 -33.71779 112.80725 39091 ft 544 kts 102°
2026-04-26 20:02 -33.73535 112.87982 39092 ft 544 kts 102°
2026-04-26 20:03 -33.75995 112.98182 39088 ft 543 kts 102°
2026-04-26 20:03 -33.78078 113.06851 39094 ft 542 kts 101°
2026-04-26 20:04 -33.80163 113.15555 39085 ft 542 kts 101°
2026-04-26 20:04 -33.82241 113.24264 39086 ft 541 kts 101°
2026-04-26 20:05 -33.84313 113.32971 39087 ft 541 kts 101°
2026-04-26 20:05 -33.86380 113.41683 39088 ft 541 kts 101°
2026-04-26 20:06 -33.88437 113.50402 39088 ft 541 kts 101°
2026-04-26 20:06 -33.90489 113.59131 39081 ft 542 kts 100°
2026-04-26 20:07 -33.92535 113.67860 39084 ft 542 kts 100°
2026-04-26 20:07 -33.94579 113.76606 39086 ft 543 kts 100°
2026-04-26 20:08 -33.96609 113.85325 39085 ft 544 kts 100°
2026-04-26 20:08 -33.98649 113.94114 39080 ft 545 kts 100°
2026-04-26 20:09 -34.00341 114.01437 39083 ft 545 kts 100°
2026-04-26 20:09 -34.02009 114.10333 39079 ft 542 kts 96°
2026-04-26 20:10 -34.03426 114.19273 39082 ft 543 kts 95°
2026-04-26 20:10 -34.04846 114.28219 39083 ft 544 kts 95°
2026-04-26 20:11 -34.06309 114.37171 39077 ft 545 kts 96°
2026-04-26 20:12 -34.08549 114.50595 39081 ft 545 kts 96°
2026-04-26 20:12 -34.10049 114.59590 39083 ft 545 kts 95°
2026-04-26 20:13 -34.11537 114.68576 39077 ft 546 kts 95°
2026-04-26 20:13 -34.13018 114.77566 39078 ft 546 kts 95°
2026-04-26 20:14 -34.14486 114.86527 39079 ft 547 kts 95°
2026-04-26 20:14 -34.15956 114.95543 39080 ft 547 kts 95°
2026-04-26 20:15 -34.17420 115.04564 39084 ft 548 kts 95°
2026-04-26 20:15 -34.18873 115.13558 39083 ft 548 kts 95°
2026-04-26 20:16 -34.20330 115.22619 39083 ft 549 kts 95°
2026-04-26 20:16 -34.21781 115.31693 39083 ft 550 kts 95°
2026-04-26 20:17 -34.23226 115.40771 39085 ft 550 kts 95°
2026-04-26 20:17 -34.24668 115.49872 39083 ft 551 kts 95°
2026-04-26 20:18 -34.26093 115.58911 39084 ft 551 kts 95°
2026-04-26 20:18 -34.27524 115.68037 39090 ft 552 kts 95°
2026-04-26 20:19 -34.28947 115.77159 39090 ft 552 kts 96°
2026-04-26 20:19 -34.30367 115.86302 39090 ft 552 kts 95°
2026-04-26 20:20 -34.31778 115.95437 39092 ft 553 kts 96°
2026-04-26 20:20 -34.33184 116.04579 39095 ft 553 kts 96°
2026-04-26 20:21 -34.34574 116.13674 39095 ft 553 kts 96°
2026-04-26 20:21 -34.35968 116.22839 39099 ft 553 kts 96°
2026-04-26 20:22 -34.37354 116.32004 39097 ft 553 kts 96°
2026-04-26 20:22 -34.38735 116.41185 39097 ft 554 kts 96°
2026-04-26 20:23 -34.40109 116.50370 39089 ft 553 kts 96°
2026-04-26 20:23 -34.41473 116.59536 39097 ft 553 kts 96°
2026-04-26 20:24 -34.42823 116.68650 39104 ft 552 kts 96°
2026-04-26 20:24 -34.44173 116.77820 39104 ft 552 kts 96°
2026-04-26 20:25 -34.45514 116.86974 39105 ft 552 kts 96°
2026-04-26 20:25 -34.46850 116.96143 39099 ft 553 kts 96°
2026-04-26 20:26 -34.48181 117.05327 39095 ft 553 kts 96°
2026-04-26 20:26 -34.49505 117.14514 39099 ft 553 kts 96°
2026-04-26 20:27 -34.50821 117.23702 39102 ft 553 kts 96°
2026-04-26 20:27 -34.52123 117.32840 39103 ft 552 kts 96°
2026-04-26 20:28 -34.53426 117.42032 39104 ft 552 kts 96°
2026-04-26 20:28 -34.54721 117.51222 39103 ft 552 kts 96°
2026-04-26 20:29 -34.56009 117.60409 39107 ft 552 kts 96°
2026-04-26 20:29 -34.57283 117.69554 39104 ft 552 kts 96°
2026-04-26 20:30 -34.58556 117.78740 39105 ft 551 kts 96°
2026-04-26 20:30 -34.59821 117.87919 39103 ft 551 kts 96°
2026-04-26 20:31 -34.61073 117.97054 39104 ft 551 kts 96°
2026-04-26 20:31 -34.62324 118.06245 39105 ft 552 kts 96°
2026-04-26 20:32 -34.63571 118.15451 39102 ft 552 kts 96°
2026-04-26 20:32 -34.64812 118.24668 39101 ft 552 kts 96°
2026-04-26 20:33 -34.66038 118.33830 39098 ft 553 kts 96°
2026-04-26 20:33 -34.67265 118.43051 39098 ft 553 kts 96°
2026-04-26 20:34 -34.68486 118.52284 39097 ft 553 kts 96°
2026-04-26 20:34 -34.69700 118.61520 39093 ft 553 kts 96°
2026-04-26 20:35 -34.70900 118.70708 39094 ft 553 kts 96°
2026-04-26 20:35 -34.72102 118.79962 39100 ft 554 kts 96°
2026-04-26 20:36 -34.73295 118.89209 39092 ft 554 kts 96°
2026-04-26 20:36 -34.74482 118.98462 39091 ft 554 kts 96°
2026-04-26 20:37 -34.75663 119.07724 39094 ft 554 kts 96°
2026-04-26 20:37 -34.76836 119.16982 39098 ft 554 kts 96°
2026-04-26 20:38 -34.78003 119.26251 39099 ft 554 kts 96°
2026-04-26 20:38 -34.79155 119.35457 39099 ft 554 kts 96°
2026-04-26 20:39 -34.80306 119.44719 39096 ft 554 kts 96°
2026-04-26 20:39 -34.81453 119.54005 39103 ft 554 kts 95°
2026-04-26 20:40 -34.82592 119.63285 39099 ft 554 kts 95°
2026-04-26 20:40 -34.83725 119.72571 39103 ft 554 kts 95°
2026-04-26 20:41 -34.84844 119.81815 39098 ft 554 kts 95°
2026-04-26 20:41 -34.85961 119.91095 39097 ft 554 kts 95°
2026-04-26 20:42 -34.87073 120.00394 39104 ft 554 kts 95°
2026-04-26 20:42 -34.88169 120.09624 39111 ft 554 kts 95°
2026-04-26 20:43 -34.89268 120.18936 39112 ft 553 kts 95°
2026-04-26 20:43 -34.90358 120.28233 39116 ft 553 kts 95°
2026-04-26 20:44 -34.91433 120.37472 39112 ft 553 kts 95°
2026-04-26 20:44 -34.92502 120.46719 39118 ft 552 kts 95°
2026-04-26 20:45 -34.93567 120.55998 39120 ft 551 kts 95°
2026-04-26 20:45 -34.94624 120.65260 39123 ft 550 kts 95°
2026-04-26 20:46 -34.95663 120.74433 39123 ft 549 kts 95°
2026-04-26 20:46 -34.96704 120.83691 39128 ft 548 kts 95°
2026-04-26 20:47 -34.97732 120.92899 39132 ft 547 kts 95°
2026-04-26 20:47 -34.98745 121.02029 39136 ft 546 kts 95°
2026-04-26 20:48 -34.99760 121.11248 39134 ft 546 kts 95°
2026-04-26 20:48 -35.00759 121.20394 39137 ft 546 kts 95°
2026-04-26 20:49 -35.01756 121.29570 39139 ft 546 kts 95°
2026-04-26 20:49 -35.02746 121.38759 39143 ft 546 kts 95°
2026-04-26 20:50 -35.03732 121.47979 39149 ft 548 kts 95°
2026-04-26 20:50 -35.04708 121.57175 39153 ft 549 kts 95°
2026-04-26 20:51 -35.05690 121.66484 39152 ft 550 kts 96°
2026-04-26 20:51 -35.06653 121.75688 39158 ft 551 kts 96°
2026-04-26 20:52 -35.07621 121.85006 39162 ft 551 kts 96°
2026-04-26 20:52 -35.08574 121.94249 39167 ft 551 kts 96°
2026-04-26 20:53 -35.09525 122.03540 39169 ft 551 kts 96°
2026-04-26 20:53 -35.10469 122.12840 39168 ft 551 kts 96°
2026-04-26 20:54 -35.11399 122.22070 39176 ft 550 kts 96°
2026-04-26 20:54 -35.12179 122.31350 39177 ft 548 kts 89°
2026-04-26 20:55 -35.12246 122.40636 39182 ft 547 kts 88°
2026-04-26 20:55 -35.12160 122.49948 39184 ft 547 kts 87°
2026-04-26 20:56 -35.12020 122.59243 39189 ft 547 kts 87°
2026-04-26 20:56 -35.11883 122.68484 39190 ft 546 kts 87°
2026-04-26 20:57 -35.11758 122.77773 39191 ft 546 kts 87°
2026-04-26 20:57 -35.11635 122.87005 39196 ft 546 kts 87°
2026-04-26 20:58 -35.11505 122.96280 39195 ft 546 kts 87°
2026-04-26 20:58 -35.11391 123.04005 39199 ft 547 kts 87°
2026-04-26 20:59 -35.11246 123.13293 39197 ft 547 kts 87°
2026-04-26 20:59 -35.11094 123.22600 39201 ft 548 kts 87°
2026-04-26 21:00 -35.10935 123.31888 39203 ft 548 kts 87°
2026-04-26 21:00 -35.10769 123.41205 39203 ft 549 kts 87°
2026-04-26 21:01 -35.10596 123.50512 39203 ft 550 kts 87°
2026-04-26 21:01 -35.10415 123.59845 39207 ft 551 kts 87°
2026-04-26 21:02 -35.10226 123.69219 39205 ft 551 kts 87°
2026-04-26 21:02 -35.10031 123.78564 39209 ft 552 kts 88°
2026-04-26 21:03 -35.09827 123.87981 39210 ft 552 kts 88°
2026-04-26 21:03 -35.09617 123.97325 39212 ft 552 kts 88°
2026-04-26 21:04 -35.09399 124.06713 39218 ft 553 kts 88°
2026-04-26 21:04 -35.09173 124.16090 39218 ft 553 kts 88°
2026-04-26 21:05 -35.08943 124.25426 39217 ft 553 kts 88°
2026-04-26 21:05 -35.08703 124.34840 39225 ft 553 kts 88°
2026-04-26 21:06 -35.08456 124.44197 39224 ft 553 kts 88°
2026-04-26 21:06 -35.08201 124.53614 39227 ft 553 kts 88°
2026-04-26 21:07 -35.07941 124.62952 39227 ft 553 kts 88°
2026-04-26 21:07 -35.07671 124.72367 39226 ft 552 kts 88°
2026-04-26 21:08 -35.07396 124.81723 39234 ft 552 kts 88°
2026-04-26 21:08 -35.07116 124.91028 39237 ft 551 kts 88°
2026-04-26 21:09 -35.06926 125.00414 39233 ft 551 kts 92°
2026-04-26 21:09 -35.07241 125.09731 39234 ft 551 kts 94°
2026-04-26 21:10 -35.07666 125.19089 39235 ft 551 kts 94°
2026-04-26 21:10 -35.08095 125.28398 39238 ft 551 kts 94°
2026-04-26 21:11 -35.08507 125.37768 39239 ft 551 kts 94°
2026-04-26 21:11 -35.08900 125.47066 39240 ft 551 kts 94°
2026-04-26 21:12 -35.09287 125.56427 39241 ft 551 kts 94°
2026-04-26 21:12 -35.09667 125.65790 39244 ft 551 kts 94°
2026-04-26 21:13 -35.10040 125.75156 39248 ft 551 kts 94°
2026-04-26 21:13 -35.10404 125.84449 39248 ft 550 kts 94°
2026-04-26 21:14 -35.10763 125.93806 39250 ft 550 kts 94°
2026-04-26 21:14 -35.11112 126.03109 39250 ft 549 kts 94°
2026-04-26 21:15 -35.11455 126.12421 39252 ft 548 kts 94°
2026-04-26 21:15 -35.11790 126.21719 39254 ft 548 kts 94°
2026-04-26 21:16 -35.12116 126.30971 39251 ft 548 kts 94°
2026-04-26 21:16 -35.12436 126.40238 39255 ft 547 kts 94°
2026-04-26 21:17 -35.12751 126.49564 39259 ft 547 kts 94°
2026-04-26 21:17 -35.13056 126.58822 39259 ft 547 kts 94°
2026-04-26 21:18 -35.13354 126.68072 39265 ft 547 kts 94°
2026-04-26 21:18 -35.13647 126.77378 39269 ft 547 kts 94°
2026-04-26 21:19 -35.13930 126.86626 39262 ft 547 kts 94°
2026-04-26 21:19 -35.14208 126.95928 39261 ft 547 kts 94°
2026-04-26 21:20 -35.14478 127.05171 39265 ft 547 kts 94°
2026-04-26 21:20 -35.14742 127.14461 39265 ft 546 kts 95°
2026-04-26 21:21 -35.14998 127.23747 39268 ft 546 kts 95°
2026-04-26 21:21 -35.15247 127.33021 39271 ft 546 kts 95°
2026-04-26 21:22 -35.15488 127.42237 39271 ft 546 kts 95°
2026-04-26 21:22 -35.15724 127.51535 39270 ft 546 kts 95°
2026-04-26 21:23 -35.16062 127.65398 39275 ft 545 kts 95°
2026-04-26 21:23 -35.16279 127.74678 39276 ft 545 kts 95°
2026-04-26 21:24 -35.16488 127.83902 39274 ft 545 kts 95°
2026-04-26 21:24 -35.16690 127.93141 39278 ft 544 kts 95°
2026-04-26 21:25 -35.16880 128.02428 39280 ft 545 kts 94°
2026-04-26 21:25 -35.16784 128.11655 39282 ft 546 kts 92°
2026-04-26 21:26 -35.16517 128.20945 39281 ft 546 kts 91°
2026-04-26 21:26 -35.16257 128.30182 39280 ft 546 kts 92°
2026-04-26 21:27 -35.16038 128.39460 39283 ft 545 kts 92°
2026-04-26 21:27 -35.15833 128.48731 39282 ft 545 kts 92°
2026-04-26 21:28 -35.15627 128.57936 39283 ft 545 kts 92°
2026-04-26 21:28 -35.15410 128.67201 39287 ft 544 kts 92°
2026-04-26 21:29 -35.15187 128.76383 39289 ft 543 kts 92°
2026-04-26 21:29 -35.14954 128.85621 39286 ft 543 kts 92°
2026-04-26 21:30 -35.14716 128.94856 39292 ft 542 kts 92°
2026-04-26 21:30 -35.14471 129.04023 39287 ft 541 kts 92°
2026-04-26 21:31 -35.14189 129.13201 39289 ft 541 kts 92°
2026-04-26 21:31 -35.13922 129.22389 39291 ft 540 kts 92°
2026-04-26 21:32 -35.13669 129.31506 39293 ft 538 kts 92°
2026-04-26 21:32 -35.13406 129.40649 39292 ft 537 kts 92°
2026-04-26 21:33 -35.13144 129.49733 39294 ft 536 kts 92°
2026-04-26 21:33 -35.12867 129.58848 39292 ft 535 kts 92°
2026-04-26 21:34 -35.12579 129.67927 39296 ft 535 kts 92°
2026-04-26 21:34 -35.12283 129.76957 39296 ft 534 kts 92°
2026-04-26 21:35 -35.11980 129.86014 39297 ft 533 kts 92°
2026-04-26 21:35 -35.11672 129.95045 39297 ft 532 kts 92°
2026-04-26 21:36 -35.11410 130.02550 39298 ft 531 kts 92°
2026-04-26 21:36 -35.11037 130.13039 39300 ft 530 kts 92°
2026-04-26 21:37 -35.10710 130.22047 39301 ft 530 kts 92°
2026-04-26 21:37 -35.10379 130.30982 39297 ft 529 kts 92°
2026-04-26 21:38 -35.10039 130.39959 39299 ft 528 kts 92°
2026-04-26 21:38 -35.09693 130.48915 39297 ft 528 kts 92°
2026-04-26 21:39 -35.09341 130.57863 39301 ft 527 kts 92°
2026-04-26 21:39 -35.08986 130.66743 39297 ft 526 kts 92°
2026-04-26 21:40 -35.08620 130.75703 39297 ft 526 kts 92°
2026-04-26 21:40 -35.08251 130.84587 39302 ft 525 kts 92°
2026-04-26 21:41 -35.07877 130.93444 39301 ft 524 kts 92°
2026-04-26 21:41 -35.07495 131.02323 39304 ft 523 kts 92°
2026-04-26 21:42 -35.07107 131.11202 39305 ft 523 kts 92°
2026-04-26 21:42 -35.06714 131.20046 39306 ft 522 kts 92°
2026-04-26 21:43 -35.06314 131.28893 39302 ft 521 kts 92°
2026-04-26 21:43 -35.05910 131.37706 39301 ft 521 kts 92°
2026-04-26 21:44 -35.05501 131.46485 39309 ft 520 kts 92°
2026-04-26 21:44 -35.05054 131.55297 39305 ft 520 kts 90°
2026-04-26 21:45 -35.04456 131.64105 39310 ft 520 kts 89°
2026-04-26 21:45 -35.03824 131.72883 39311 ft 519 kts 89°
2026-04-26 21:46 -35.03207 131.81667 39308 ft 518 kts 89°
2026-04-26 21:46 -35.02605 131.90371 39305 ft 517 kts 89°
2026-04-26 21:47 -35.01997 131.99128 39307 ft 516 kts 89°
2026-04-26 21:47 -35.01387 132.07833 39307 ft 515 kts 88°
2026-04-26 21:48 -35.00771 132.16500 39309 ft 514 kts 88°
2026-04-26 21:48 -35.00147 132.25201 39312 ft 513 kts 88°
2026-04-26 21:49 -34.99522 132.33823 39312 ft 513 kts 88°
2026-04-26 21:49 -34.98888 132.42493 39312 ft 512 kts 87°
2026-04-26 21:50 -34.98353 132.49726 39314 ft 512 kts 87°
2026-04-26 21:50 -34.97601 132.59806 39312 ft 511 kts 86°
2026-04-26 21:51 -34.96950 132.68441 39316 ft 511 kts 86°
2026-04-26 21:51 -34.96295 132.77053 39316 ft 510 kts 86°
2026-04-26 21:52 -34.95636 132.85633 39317 ft 510 kts 86°
2026-04-26 21:52 -34.94968 132.94249 39315 ft 509 kts 86°
2026-04-26 21:53 -34.94296 133.02833 39321 ft 509 kts 85°
2026-04-26 21:53 -34.93621 133.11374 39321 ft 509 kts 85°
2026-04-26 21:54 -34.92938 133.19953 39324 ft 508 kts 85°
2026-04-26 21:54 -34.92249 133.28523 39325 ft 508 kts 85°
2026-04-26 21:55 -34.91673 133.35623 39323 ft 508 kts 85°
2026-04-26 21:55 -34.90857 133.45598 39321 ft 508 kts 85°
2026-04-26 21:56 -34.90265 133.52776 39320 ft 508 kts 85°
2026-04-26 21:56 -34.89558 133.61278 39319 ft 508 kts 85°
2026-04-26 21:57 -34.88839 133.69854 39319 ft 507 kts 85°
2026-04-26 21:57 -34.88115 133.78410 39318 ft 507 kts 85°
2026-04-26 21:58 -34.87386 133.86962 39322 ft 507 kts 85°
2026-04-26 21:58 -34.86650 133.95513 39320 ft 508 kts 84°
2026-04-26 21:59 -34.85910 134.04049 39321 ft 507 kts 84°
2026-04-26 21:59 -34.85164 134.12578 39322 ft 507 kts 84°
2026-04-26 22:00 -34.84413 134.21103 39320 ft 508 kts 84°
2026-04-26 22:00 -34.83656 134.29622 39323 ft 507 kts 84°
2026-04-26 22:01 -34.82890 134.38168 39323 ft 508 kts 84°
2026-04-26 22:01 -34.82118 134.46727 39322 ft 507 kts 84°
2026-04-26 22:02 -34.81343 134.55241 39322 ft 507 kts 84°
2026-04-26 22:02 -34.80561 134.63764 39322 ft 507 kts 84°
2026-04-26 22:03 -34.79774 134.72280 39324 ft 507 kts 84°
2026-04-26 22:03 -34.78980 134.80801 39325 ft 507 kts 84°
2026-04-26 22:04 -34.78181 134.89317 39330 ft 507 kts 84°
2026-04-26 22:04 -34.77377 134.97832 39325 ft 506 kts 85°
2026-04-26 22:05 -34.77164 135.06361 39327 ft 506 kts 91°
2026-04-26 22:05 -34.77113 135.14952 39334 ft 506 kts 91°
2026-04-26 22:06 -34.77068 135.23498 39329 ft 505 kts 91°
2026-04-26 22:06 -34.77019 135.31989 39332 ft 505 kts 91°
2026-04-26 22:07 -34.76964 135.40552 39332 ft 505 kts 91°
2026-04-26 22:07 -34.76905 135.49093 39332 ft 505 kts 91°
2026-04-26 22:08 -34.76838 135.57609 39332 ft 505 kts 91°
2026-04-26 22:08 -34.76767 135.66136 39338 ft 505 kts 91°
2026-04-26 22:09 -34.76688 135.74694 39330 ft 505 kts 91°
2026-04-26 22:09 -34.76604 135.83228 39336 ft 504 kts 91°
2026-04-26 22:10 -34.76514 135.91768 39331 ft 504 kts 91°
2026-04-26 22:10 -34.76419 136.00244 39334 ft 504 kts 91°
2026-04-26 22:11 -34.76318 136.08770 39327 ft 504 kts 91°
2026-04-26 22:11 -34.76211 136.17274 39329 ft 504 kts 91°
2026-04-26 22:12 -34.76097 136.25801 39328 ft 504 kts 91°
2026-04-26 22:12 -34.75978 136.34310 39332 ft 504 kts 92°
2026-04-26 22:13 -34.75851 136.42721 39164 ft 489 kts 92°
2026-04-26 22:13 -34.75789 136.46807 38796 ft 483 kts 92°
2026-04-26 22:13 -34.75726 136.50859 38360 ft 479 kts 92°
2026-04-26 22:14 -34.75660 136.54932 37880 ft 476 kts 92°
2026-04-26 22:14 -34.75596 136.58914 37404 ft 473 kts 92°
2026-04-26 22:14 -34.75531 136.62931 36846 ft 472 kts 92°
2026-04-26 22:14 -34.75465 136.66882 36229 ft 466 kts 92°
2026-04-26 22:15 -34.75392 136.70794 35617 ft 457 kts 92°
2026-04-26 22:15 -34.75318 136.74611 35015 ft 453 kts 92°
2026-04-26 22:15 -34.75243 136.78419 34382 ft 449 kts 92°
2026-04-26 22:15 -34.75169 136.82225 33691 ft 444 kts 92°
2026-04-26 22:16 -34.75097 136.85952 32985 ft 439 kts 92°
2026-04-26 22:16 -34.75027 136.89626 32300 ft 433 kts 92°
2026-04-26 22:16 -34.74957 136.93256 31634 ft 428 kts 92°
2026-04-26 22:16 -34.74887 136.96837 30997 ft 423 kts 92°
2026-04-26 22:17 -34.74817 137.00380 30360 ft 418 kts 92°
2026-04-26 22:17 -34.74747 137.03907 29617 ft 412 kts 92°
2026-04-26 22:17 -34.74676 137.07376 28902 ft 407 kts 93°
2026-04-26 22:17 -34.74605 137.10776 28206 ft 403 kts 93°
2026-04-26 22:18 -34.74535 137.14130 27585 ft 397 kts 93°
2026-04-26 22:18 -34.74465 137.17466 26982 ft 393 kts 93°
2026-04-26 22:18 -34.74394 137.20784 26397 ft 389 kts 94°
2026-04-26 22:18 -34.74323 137.24080 25825 ft 386 kts 94°
2026-04-26 22:19 -34.74253 137.27305 25267 ft 382 kts 94°
2026-04-26 22:19 -34.74181 137.30542 24716 ft 379 kts 94°
2026-04-26 22:19 -34.74111 137.33702 24183 ft 375 kts 94°
2026-04-26 22:19 -34.74039 137.36883 23600 ft 372 kts 94°
2026-04-26 22:20 -34.73969 137.40002 22972 ft 369 kts 94°
2026-04-26 22:20 -34.73925 137.42082 22558 ft 366 kts 94°
2026-04-26 22:20 -34.73845 137.46184 21763 ft 360 kts 95°
2026-04-26 22:20 -34.73790 137.49198 21202 ft 357 kts 94°
2026-04-26 22:21 -34.73596 137.52167 20651 ft 354 kts 82°
2026-04-26 22:21 -34.72722 137.55007 19937 ft 353 kts 65°
2026-04-26 22:21 -34.71624 137.57524 20250 ft 324 kts 66°
2026-04-26 22:21 -34.70664 137.59776 20337 ft 301 kts 69°
2026-04-26 22:22 -34.69888 137.62117 20102 ft 292 kts 77°
2026-04-26 22:22 -34.69438 137.64464 19875 ft 283 kts 86°
2026-04-26 22:22 -34.69157 137.66795 19665 ft 276 kts 88°
2026-04-26 22:22 -34.68962 137.69091 19529 ft 269 kts 91°
2026-04-26 22:23 -34.68831 137.71299 19326 ft 265 kts 92°
2026-04-26 22:23 -34.68740 137.73554 18940 ft 269 kts 93°
2026-04-26 22:23 -34.68761 137.75833 18650 ft 268 kts 98°
2026-04-26 22:23 -34.68905 137.78065 18314 ft 268 kts 99°
2026-04-26 22:24 -34.69107 137.80350 17896 ft 271 kts 101°
2026-04-26 22:24 -34.69149 137.80762 17832 ft 271 kts 101°
2026-04-26 22:24 -34.69243 137.81649 17758 ft 256 kts 101°
2026-04-26 22:24 -34.69488 137.83604 17613 ft 218 kts 104°
2026-04-26 22:25 -34.69827 137.85324 17142 ft 201 kts 112°
2026-04-26 22:25 -34.70260 137.86846 16822 ft 187 kts 115°